KJ6MC Weather Reports


Display with metric or nautical units.
time (UTC)temp
F
wind
direction
speed
MPH
gust
MPH
rain 1hr
in
rain 24hr
in
rain mn
in
humidity
%
barometer
mb
20260508013207 80 246 2.0 7.0 0.00 0.00 0.00 58 1013.6
20260508013107 80 235 2.0 6.0 0.00 0.00 0.00 59 1013.6
20260508013007 80 235 2.0 6.0 0.00 0.00 0.00 59 1013.6
20260508012907 80 234 2.0 6.0 0.00 0.00 0.00 58 1013.6
20260508012808 80 226 2.0 6.0 0.00 0.00 0.00 58 1013.6
20260508012757 80 226 2.0 6.0 0.00 0.00 0.00 58 1013.6
20260508012707 80 222 2.0 6.0 0.00 0.00 0.00 58 1013.6
20260508012607 81 208 2.0 6.0 0.00 0.00 0.00 58 1013.6
20260508012507 81 238 2.0 6.0 0.00 0.00 0.00 58 1013.6
20260508012406 81 207 2.0 5.0 0.00 0.00 0.00 58 1013.6
20260508012308 81 210 2.0 5.0 0.00 0.00 0.00 57 1013.6
20260508012256 81 242 2.0 5.0 0.00 0.00 0.00 57 1013.6
20260508012207 81 243 1.0 5.0 0.00 0.00 0.00 57 1013.6
20260508012107 81 243 1.0 5.0 0.00 0.00 0.00 57 1013.6
20260508012007 81 250 1.0 5.0 0.00 0.00 0.00 58 1013.6
20260508011903 81 248 1.0 5.0 0.00 0.00 0.00 58 1013.6
20260508011811 81 249 1.0 5.0 0.00 0.00 0.00 58 1013.6
20260508011758 81 225 1.0 5.0 0.00 0.00 0.00 58 1013.6
20260508011708 81 253 1.0 5.0 0.00 0.00 0.00 58 1013.6
20260508011603 81 226 1.0 5.0 0.00 0.00 0.00 58 1013.6
20260508011504 81 243 0.0 5.0 0.00 0.00 0.00 58 1013.6
20260508011403 81 322 0.0 3.0 0.00 0.00 0.00 59 1013.6
20260508011307 81 322 0.0 3.0 0.00 0.00 0.00 58 1013.6
20260508011257 81 323 0.0 3.0 0.00 0.00 0.00 58 1013.6
20260508011203 81 323 0.0 3.0 0.00 0.00 0.00 57 1013.6
20260508011103 81 323 1.0 5.0 0.00 0.00 0.00 58 1013.6
20260508011002 81 339 1.0 6.0 0.00 0.00 0.00 58 1013.6
20260508010903 81 339 1.0 6.0 0.00 0.00 0.00 58 1013.7
20260508010811 81 231 1.0 6.0 0.00 0.00 0.00 58 1013.7
20260508010800 81 232 1.0 6.0 0.00 0.00 0.00 58 1013.7
20260508010704 81 232 1.0 6.0 0.00 0.00 0.00 58 1013.7
20260508010603 81 232 1.0 6.0 0.00 0.00 0.00 58 1013.6
20260508010503 81 232 1.0 6.0 0.00 0.00 0.00 57 1013.6
20260508010403 81 232 1.0 6.0 0.00 0.00 0.00 58 1013.7
20260508010252 81 232 1.0 6.0 0.00 0.00 0.00 57 1013.6
20260508010204 81 229 1.0 6.0 0.00 0.00 0.00 57 1013.6
20260508010010 82 224 1.0 6.0 0.00 0.00 0.00 58 1013.7
20260508005959 82 222 0.0 5.0 0.00 0.00 0.00 58 1013.7
20260508005912 82 224 1.0 6.0 0.00 0.00 0.00 58 1013.7
20260508005903 82 224 1.0 6.0 0.00 0.00 0.00 58 1013.7
20260508005659 82 224 1.0 6.0 0.00 0.00 0.00 58 1013.6
20260508005559 82 223 1.0 6.0 0.00 0.00 0.00 58 1013.6
20260508005459 82 224 1.0 6.0 0.00 0.00 0.00 58 1013.7
20260508005359 82 224 1.0 6.0 0.00 0.00 0.00 58 1013.7
20260508005252 82 224 1.0 6.0 0.00 0.00 0.00 58 1013.7
20260508005201 82 224 1.0 6.0 0.00 0.00 0.00 57 1013.7
20260508005059 82 238 1.0 6.0 0.00 0.00 0.00 57 1013.6
20260508004959 82 248 0.0 6.0 0.00 0.00 0.00 57 1013.7
20260508004859 82 235 0.0 3.0 0.00 0.00 0.00 57 1013.7
20260508004753 82 240 0.0 3.0 0.00 0.00 0.00 57 1013.7
20260508004700 82 242 1.0 7.0 0.00 0.00 0.00 56 1013.7
20260508004559 82 242 1.0 7.0 0.00 0.00 0.00 56 1013.7
20260508004459 82 242 1.0 7.0 0.00 0.00 0.00 56 1013.8
20260508004359 82 242 1.0 7.0 0.00 0.00 0.00 56 1013.7
20260508004304 82 242 1.0 7.0 0.00 0.00 0.00 56 1013.7
20260508004253 82 241 1.0 7.0 0.00 0.00 0.00 56 1013.7
20260508004159 82 242 1.0 7.0 0.00 0.00 0.00 56 1013.7
20260508004055 82 242 1.0 7.0 0.00 0.00 0.00 56 1013.7
20260508003955 82 242 1.0 7.0 0.00 0.00 0.00 55 1013.7
20260508003855 82 235 1.0 7.0 0.00 0.00 0.00 55 1013.7
20260508003757 82 218 1.0 7.0 0.00 0.00 0.00 54 1013.8
20260508003655 82 233 1.0 7.0 0.00 0.00 0.00 55 1013.8
20260508003555 83 233 1.0 7.0 0.00 0.00 0.00 54 1013.8
20260508003455 83 233 1.0 7.0 0.00 0.00 0.00 54 1013.8
20260508003355 83 233 1.0 7.0 0.00 0.00 0.00 54 1013.8
20260508003256 83 229 1.0 7.0 0.00 0.00 0.00 53 1013.8
20260508003155 83 146 1.0 7.0 0.00 0.00 0.00 53 1013.8
20260508003055 83 222 1.0 7.0 0.00 0.00 0.00 53 1013.8
20260508003019 83 246 1.0 5.0 0.00 0.00 0.00 53 1013.8
20260508002954 83 357 0.0 3.0 0.00 0.00 0.00 54 1013.8
20260508002913 83 246 1.0 5.0 0.00 0.00 0.00 54 1013.8
20260508002903 83 246 1.0 5.0 0.00 0.00 0.00 53 1013.8
20260508002655 83 263 1.0 5.0 0.00 0.00 0.00 53 1013.8
20260508002556 83 263 1.0 5.0 0.00 0.00 0.00 53 1013.8
20260508002455 83 263 1.0 5.0 0.00 0.00 0.00 54 1013.8
20260508002355 83 263 1.0 5.0 0.00 0.00 0.00 54 1013.8
20260508002257 83 263 1.0 5.0 0.00 0.00 0.00 53 1013.8
20260508002151 83 263 1.0 5.0 0.00 0.00 0.00 52 1013.8
20260508001951 84 252 1.0 5.0 0.00 0.00 0.00 52 1013.8
20260508001851 84 217 1.0 5.0 0.00 0.00 0.00 51 1013.8
20260508001807 84 243 1.0 5.0 0.00 0.00 0.00 52 1013.9
20260508001655 84 231 1.0 5.0 0.00 0.00 0.00 51 1013.8
20260508001551 84 248 1.0 5.0 0.00 0.00 0.00 50 1013.8
20260508001451 84 245 1.0 5.0 0.00 0.00 0.00 51 1013.8
20260508001351 84 246 1.0 5.0 0.00 0.00 0.00 51 1013.8
20260508001254 84 198 1.0 5.0 0.00 0.00 0.00 52 1013.8
20260508001151 84 218 1.0 5.0 0.00 0.00 0.00 52 1013.9
20260508001051 84 217 1.0 5.0 0.00 0.00 0.00 51 1013.9
20260508000951 84 218 1.0 8.0 0.00 0.00 0.00 51 1013.8
20260508000852 84 222 1.0 8.0 0.00 0.00 0.00 51 1013.8
20260508000755 84 233 1.0 8.0 0.00 0.00 0.00 52 1013.8
20260508000651 84 150 1.0 8.0 0.00 0.00 0.00 52 1013.8
20260508000551 84 221 2.0 8.0 0.00 0.00 0.00 52 1013.8
20260508000451 84 165 2.0 8.0 0.00 0.00 0.00 53 1013.8
20260508000351 84 250 2.0 8.0 0.00 0.00 0.00 54 1013.9
20260508000250 84 288 2.0 8.0 0.00 0.00 0.00 54 1013.9
20260508000147 83 282 2.0 8.0 0.00 0.00 0.00 53 1013.8
20260508000047 83 260 2.0 8.0 0.00 0.00 0.00 53 1013.7
20260507235947 83 307 2.0 8.0 0.00 0.00 0.00 53 1013.8
20260507235847 84 307 3.0 8.0 0.00 0.00 0.00 52 1013.8
20260507235747 84 325 3.0 8.0 0.00 0.00 0.00 52 1013.8
20260507235651 84 245 3.0 8.0 0.00 0.00 0.00 52 1013.8
20260507235547 84 224 3.0 8.0 0.00 0.00 0.00 53 1013.8
20260507235446 84 231 3.0 8.0 0.00 0.00 0.00 52 1013.8
20260507235347 84 110 4.0 8.0 0.00 0.00 0.00 52 1013.8
20260507235255 83 158 3.0 8.0 0.00 0.00 0.00 52 1013.8
20260507235247 83 159 3.0 8.0 0.00 0.00 0.00 52 1013.8
20260507235147 83 266 4.0 8.0 0.00 0.00 0.00 52 1013.8
20260507235047 83 143 4.0 9.0 0.00 0.00 0.00 52 1013.8
20260507235017 84 226 4.0 9.0 0.00 0.00 0.00 51 1013.8
20260507234947 83 253 4.0 9.0 0.00 0.00 0.00 52 1013.8
20260507234905 84 253 4.0 9.0 0.00 0.00 0.00 51 1013.8
20260507234747 84 230 4.0 9.0 0.00 0.00 0.00 51 1013.8
20260507234652 84 210 4.0 9.0 0.00 0.00 0.00 51 1013.8
20260507234546 84 243 3.0 9.0 0.00 0.00 0.00 52 1013.8
20260507234510 85 176 3.0 9.0 0.00 0.00 0.00 51 1013.8
20260507234447 84 225 3.0 9.0 0.00 0.00 0.00 51 1013.8
20260507234359 84 249 3.0 9.0 0.00 0.00 0.00 52 1013.8
20260507234243 85 138 3.0 9.0 0.00 0.00 0.00 51 1013.9
20260507234143 85 236 3.0 9.0 0.00 0.00 0.00 50 1013.9
20260507234043 85 225 2.0 8.0 0.00 0.00 0.00 51 1013.9
20260507233943 85 236 2.0 8.0 0.00 0.00 0.00 51 1013.9
20260507233843 86 215 2.0 8.0 0.00 0.00 0.00 50 1013.8
20260507233749 86 193 1.0 7.0 0.00 0.00 0.00 50 1013.8
20260507233743 86 193 1.0 7.0 0.00 0.00 0.00 50 1013.9
20260507233643 86 217 1.0 7.0 0.00 0.00 0.00 50 1013.8
20260507233543 86 229 1.0 7.0 0.00 0.00 0.00 51 1013.9
20260507233443 86 228 2.0 7.0 0.00 0.00 0.00 50 1013.9
20260507233342 86 167 2.0 7.0 0.00 0.00 0.00 50 1013.9
20260507233252 86 146 2.0 7.0 0.00 0.00 0.00 52 1013.9
20260507233243 86 150 2.0 7.0 0.00 0.00 0.00 52 1013.8
20260507233143 86 158 2.0 7.0 0.00 0.00 0.00 52 1013.9
20260507233043 85 150 2.0 7.0 0.00 0.00 0.00 51 1013.9
20260507232942 85 149 2.0 7.0 0.00 0.00 0.00 51 1013.9
20260507232843 85 146 2.0 8.0 0.00 0.00 0.00 52 1013.9
20260507232743 85 224 2.0 8.0 0.00 0.00 0.00 51 1013.9
20260507232644 85 219 2.0 8.0 0.00 0.00 0.00 52 1013.9
20260507232543 85 167 1.0 8.0 0.00 0.00 0.00 51 1013.9
20260507232439 85 163 1.0 8.0 0.00 0.00 0.00 51 1013.9
20260507232339 85 239 1.0 8.0 0.00 0.00 0.00 52 1013.9
20260507232239 85 304 1.0 8.0 0.00 0.00 0.00 53 1013.9
20260507232139 85 240 2.0 8.0 0.00 0.00 0.00 52 1013.9
20260507232038 85 240 2.0 8.0 0.00 0.00 0.00 52 1014.0
20260507231939 85 240 1.0 8.0 0.00 0.00 0.00 51 1014.0
20260507231839 85 314 1.0 5.0 0.00 0.00 0.00 52 1014.0
20260507231746 85 219 1.0 5.0 0.00 0.00 0.00 52 1014.0
20260507231738 85 219 2.0 5.0 0.00 0.00 0.00 52 1014.0
20260507231639 85 219 2.0 5.0 0.00 0.00 0.00 52 1014.0
20260507231538 85 219 1.0 5.0 0.00 0.00 0.00 51 1014.0
20260507231439 85 210 1.0 5.0 0.00 0.00 0.00 50 1014.1
20260507231339 85 235 1.0 5.0 0.00 0.00 0.00 51 1014.1
20260507231241 85 145 1.0 5.0 0.00 0.00 0.00 53 1014.1
20260507231232 84 235 1.0 4.0 0.00 0.00 0.00 53 1014.2
20260507231139 85 145 1.0 5.0 0.00 0.00 0.00 52 1014.1
20260507231117 85 229 1.0 5.0 0.00 0.00 0.00 53 1014.1
20260507230939 84 350 1.0 4.0 0.00 0.00 0.00 53 1014.1
20260507230905 84 6 1.0 4.0 0.00 0.00 0.00 53 1014.2
20260507230740 84 235 1.0 4.0 0.00 0.00 0.00 53 1014.2
20260507230641 84 256 1.0 5.0 0.00 0.00 0.00 53 1014.2
20260507230537 84 194 1.0 5.0 0.00 0.00 0.00 53 1014.2
20260507230435 84 316 2.0 5.0 0.00 0.00 0.00 53 1014.2
20260507230334 84 316 2.0 5.0 0.00 0.00 0.00 53 1014.2
20260507230251 84 316 2.0 5.0 0.00 0.00 0.00 52 1014.2
20260507230242 84 316 2.0 5.0 0.00 0.00 0.00 52 1014.3
20260507230134 84 316 2.0 6.0 0.00 0.00 0.00 52 1014.3
20260507230035 84 239 3.0 6.0 0.00 0.00 0.00 53 1014.3
20260507225935 84 238 3.0 6.0 0.00 0.00 0.00 53 1014.3
20260507225839 84 228 3.0 6.0 0.00 0.00 0.00 53 1014.4
20260507225739 84 228 3.0 6.0 0.00 0.00 0.00 52 1014.4
20260507225635 84 210 3.0 6.0 0.00 0.00 0.00 52 1014.4
20260507225535 84 221 3.0 6.0 0.00 0.00 0.00 53 1014.4
20260507225435 84 208 3.0 6.0 0.00 0.00 0.00 53 1014.4
20260507225336 84 243 3.0 6.0 0.00 0.00 0.00 54 1014.4
20260507225245 84 141 3.0 6.0 0.00 0.00 0.00 53 1014.4
20260507225235 84 156 3.0 6.0 0.00 0.00 0.00 53 1014.4
20260507225135 84 215 3.0 8.0 0.00 0.00 0.00 52 1014.4
20260507225035 84 235 3.0 8.0 0.00 0.00 0.00 52 1014.5
20260507224934 85 214 2.0 8.0 0.00 0.00 0.00 52 1014.5
20260507224835 85 236 2.0 8.0 0.00 0.00 0.00 52 1014.5
20260507224735 85 225 2.0 8.0 0.00 0.00 0.00 52 1014.5
20260507224630 85 231 2.0 8.0 0.00 0.00 0.00 53 1014.5
20260507224531 85 255 2.0 8.0 0.00 0.00 0.00 52 1014.5
20260507224431 85 256 2.0 8.0 0.00 0.00 0.00 53 1014.6
20260507224331 85 250 2.0 8.0 0.00 0.00 0.00 52 1014.5
20260507224242 85 242 2.0 8.0 0.00 0.00 0.00 52 1014.6
20260507224235 85 217 2.0 8.0 0.00 0.00 0.00 52 1014.6
20260507224131 84 207 2.0 6.0 0.00 0.00 0.00 55 1014.6
20260507224031 84 224 2.0 6.0 0.00 0.00 0.00 55 1014.6
20260507223931 84 224 2.0 6.0 0.00 0.00 0.00 54 1014.6
20260507223831 84 224 2.0 6.0 0.00 0.00 0.00 54 1014.6
20260507223731 84 224 2.0 6.0 0.00 0.00 0.00 54 1014.6
20260507223631 84 224 2.0 6.0 0.00 0.00 0.00 53 1014.6
20260507223531 84 275 2.0 6.0 0.00 0.00 0.00 52 1014.6
20260507223431 85 236 2.0 6.0 0.00 0.00 0.00 51 1014.7
20260507223331 85 226 1.0 6.0 0.00 0.00 0.00 51 1014.7
20260507223231 85 218 1.0 5.0 0.00 0.00 0.00 51 1014.7
20260507223131 85 281 1.0 5.0 0.00 0.00 0.00 51 1014.8
20260507223031 86 224 0.0 5.0 0.00 0.00 0.00 50 1014.8
20260507222930 86 237 0.0 3.0 0.00 0.00 0.00 51 1014.7
20260507222831 86 235 0.0 3.0 0.00 0.00 0.00 52 1014.8
20260507222741 86 235 0.0 2.0 0.00 0.00 0.00 52 1014.8
20260507222727 86 245 0.0 2.0 0.00 0.00 0.00 52 1014.8
20260507222627 86 245 0.0 2.0 0.00 0.00 0.00 51 1014.8
20260507222527 86 245 1.0 4.0 0.00 0.00 0.00 51 1014.8
20260507222427 86 246 1.0 4.0 0.00 0.00 0.00 51 1014.9
20260507222327 86 243 1.0 6.0 0.00 0.00 0.00 51 1014.9
20260507222227 86 271 1.0 6.0 0.00 0.00 0.00 52 1014.9
20260507222126 86 262 1.0 6.0 0.00 0.00 0.00 53 1015.0
20260507222028 85 139 1.0 6.0 0.00 0.00 0.00 54 1015.0
20260507222000 85 226 1.0 6.0 0.00 0.00 0.00 53 1015.0
20260507221926 85 226 1.0 6.0 0.00 0.00 0.00 53 1015.0
20260507221851 85 226 1.0 6.0 0.00 0.00 0.00 53 1015.0
20260507221728 85 226 1.0 6.0 0.00 0.00 0.00 53 1015.0
20260507221627 85 277 1.0 6.0 0.00 0.00 0.00 53 1015.0
20260507221527 85 276 1.0 6.0 0.00 0.00 0.00 52 1015.0
20260507221427 85 218 1.0 6.0 0.00 0.00 0.00 51 1015.1
20260507221327 85 125 1.0 5.0 0.00 0.00 0.00 51 1015.1
20260507221240 85 205 1.0 5.0 0.00 0.00 0.00 52 1015.1
20260507221233 83 204 1.0 4.0 0.00 0.00 0.00 53 1015.2
20260507221227 85 177 1.0 4.0 0.00 0.00 0.00 52 1015.1
20260507221126 84 194 1.0 4.0 0.00 0.00 0.00 54 1015.2
20260507221114 84 93 1.0 4.0 0.00 0.00 0.00 54 1015.2
20260507220927 84 63 1.0 4.0 0.00 0.00 0.00 54 1015.2
20260507220851 83 63 1.0 4.0 0.00 0.00 0.00 54 1015.2
20260507220723 83 174 1.0 4.0 0.00 0.00 0.00 53 1015.2
20260507220623 83 304 1.0 4.0 0.00 0.00 0.00 54 1015.2
20260507220523 83 325 1.0 4.0 0.00 0.00 0.00 53 1015.3
20260507220423 83 312 1.0 4.0 0.00 0.00 0.00 54 1015.3
20260507220323 83 231 1.0 4.0 0.00 0.00 0.00 54 1015.3
20260507220225 83 231 1.0 4.0 0.00 0.00 0.00 54 1015.3
20260507220123 83 218 1.0 5.0 0.00 0.00 0.00 53 1015.3
20260507220023 83 221 1.0 5.0 0.00 0.00 0.00 54 1015.4
20260507215924 83 219 1.0 5.0 0.00 0.00 0.00 54 1015.4
20260507215823 83 219 1.0 5.0 0.00 0.00 0.00 54 1015.4
20260507215723 83 219 1.0 5.0 0.00 0.00 0.00 55 1015.4
20260507215623 83 219 1.0 5.0 0.00 0.00 0.00 54 1015.4
20260507215523 83 219 1.0 5.0 0.00 0.00 0.00 53 1015.5
20260507215424 83 219 1.0 5.0 0.00 0.00 0.00 53 1015.4
20260507215322 83 160 1.0 5.0 0.00 0.00 0.00 52 1015.4
20260507215237 83 332 1.0 5.0 0.00 0.00 0.00 52 1015.5
20260507215223 83 321 1.0 5.0 0.00 0.00 0.00 52 1015.5
20260507215122 84 307 1.0 5.0 0.00 0.00 0.00 51 1015.5
20260507215024 84 319 1.0 5.0 0.00 0.00 0.00 52 1015.5
20260507214919 84 117 1.0 5.0 0.00 0.00 0.00 52 1015.4
20260507214820 84 141 0.0 4.0 0.00 0.00 0.00 54 1015.5
20260507214736 83 239 1.0 3.0 0.00 0.00 0.00 54 1015.5
20260507214719 83 238 1.0 3.0 0.00 0.00 0.00 54 1015.5
20260507214619 83 239 1.0 3.0 0.00 0.00 0.00 53 1015.5
20260507214519 83 238 1.0 3.0 0.00 0.00 0.00 53 1015.6
20260507214419 83 218 1.0 4.0 0.00 0.00 0.00 53 1015.6
20260507214320 83 226 1.0 4.0 0.00 0.00 0.00 54 1015.6
20260507214237 83 214 1.0 4.0 0.00 0.00 0.00 55 1015.6
20260507214220 83 153 1.0 4.0 0.00 0.00 0.00 55 1015.6
20260507214119 82 160 1.0 6.0 0.00 0.00 0.00 55 1015.6
20260507214019 82 49 1.0 6.0 0.00 0.00 0.00 55 1015.6
20260507213920 82 49 1.0 6.0 0.00 0.00 0.00 56 1015.6
20260507213819 82 53 2.0 6.0 0.00 0.00 0.00 55 1015.6
20260507213736 81 58 2.0 6.0 0.00 0.00 0.00 55 1015.6
20260507213718 81 53 2.0 6.0 0.00 0.00 0.00 55 1015.6
20260507213619 81 345 2.0 6.0 0.00 0.00 0.00 54 1015.7
20260507213519 82 317 1.0 6.0 0.00 0.00 0.00 55 1015.7
20260507213419 82 332 1.0 6.0 0.00 0.00 0.00 55 1015.7
20260507213319 82 43 1.0 6.0 0.00 0.00 0.00 54 1015.7
20260507213237 82 346 1.0 6.0 0.00 0.00 0.00 54 1015.8
20260507213219 82 318 1.0 6.0 0.00 0.00 0.00 55 1015.8
20260507213120 82 335 1.0 4.0 0.00 0.00 0.00 55 1015.8
20260507213014 82 318 1.0 4.0 0.00 0.00 0.00 53 1015.8
20260507212954 82 314 1.0 4.0 0.00 0.00 0.00 54 1015.8
20260507212916 82 318 1.0 4.0 0.00 0.00 0.00 53 1015.8
20260507212849 82 318 1.0 4.0 0.00 0.00 0.00 54 1015.8
20260507212715 82 314 1.0 4.0 0.00 0.00 0.00 54 1015.8
20260507212615 82 330 1.0 4.0 0.00 0.00 0.00 53 1015.8
20260507212515 82 330 1.0 4.0 0.00 0.00 0.00 55 1015.9
20260507212414 82 325 1.0 4.0 0.00 0.00 0.00 55 1015.8
20260507212315 82 341 1.0 4.0 0.00 0.00 0.00 55 1015.9
20260507212250 82 342 1.0 4.0 0.00 0.00 0.00 55 1015.9
20260507212215 82 342 1.0 4.0 0.00 0.00 0.00 55 1015.9
20260507212115 82 342 1.0 4.0 0.00 0.00 0.00 53 1015.9
20260507212015 82 104 1.0 4.0 0.00 0.00 0.00 53 1015.9
20260507211915 83 225 1.0 4.0 0.00 0.00 0.00 53 1016.0
20260507211815 83 225 1.0 4.0 0.00 0.00 0.00 53 1016.0
20260507211714 83 217 1.0 4.0 0.00 0.00 0.00 55 1016.0
20260507211615 83 192 1.0 4.0 0.00 0.00 0.00 53 1016.0
20260507211515 83 49 1.0 4.0 0.00 0.00 0.00 53 1016.0
20260507211414 83 316 1.0 4.0 0.00 0.00 0.00 54 1016.1
20260507211315 83 288 1.0 5.0 0.00 0.00 0.00 54 1016.1
20260507211215 83 288 1.0 5.0 0.00 0.00 0.00 54 1016.1
20260507211111 83 253 1.0 5.0 0.00 0.00 0.00 55 1016.1
20260507211011 83 253 1.0 5.0 0.00 0.00 0.00 53 1016.1
20260507210917 83 225 1.0 5.0 0.00 0.00 0.00 54 1016.1
20260507210811 83 115 1.0 5.0 0.00 0.00 0.00 54 1016.1
20260507210746 83 96 1.0 5.0 0.00 0.00 0.00 54 1016.1
20260507210711 83 96 1.0 5.0 0.00 0.00 0.00 54 1016.1
20260507210611 83 236 1.0 5.0 0.00 0.00 0.00 53 1016.1
20260507210515 82 150 1.0 5.0 0.00 0.00 0.00 56 1016.2
20260507210411 82 145 1.0 5.0 0.00 0.00 0.00 55 1016.2
20260507210311 82 223 1.0 4.0 0.00 0.00 0.00 54 1016.2
20260507210233 82 124 1.0 4.0 0.00 0.00 0.00 54 1016.2
20260507210211 82 133 1.0 4.0 0.00 0.00 0.00 55 1016.2
20260507210111 82 134 1.0 4.0 0.00 0.00 0.00 54 1016.2
20260507210011 82 228 1.0 4.0 0.00 0.00 0.00 54 1016.2
20260507205911 82 218 0.0 4.0 0.00 0.00 0.00 56 1016.3
20260507205810 82 305 1.0 4.0 0.00 0.00 0.00 56 1016.2
20260507205733 82 305 1.0 4.0 0.00 0.00 0.00 56 1016.2
20260507205712 82 305 1.0 4.0 0.00 0.00 0.00 55 1016.2
20260507205611 82 305 1.0 4.0 0.00 0.00 0.00 56 1016.3
20260507205511 82 240 1.0 3.0 0.00 0.00 0.00 56 1016.3
20260507205411 81 240 1.0 3.0 0.00 0.00 0.00 57 1016.3
20260507205311 81 240 1.0 3.0 0.00 0.00 0.00 57 1016.4
20260507205232 81 240 1.0 3.0 0.00 0.00 0.00 56 1016.4
20260507205207 81 240 1.0 3.0 0.00 0.00 0.00 57 1016.4
20260507205107 81 99 1.0 2.0 0.00 0.00 0.00 56 1016.4
20260507205007 80 271 1.0 3.0 0.00 0.00 0.00 56 1016.3
20260507204907 80 150 1.0 3.0 0.00 0.00 0.00 57 1016.4
20260507204807 80 134 1.0 6.0 0.00 0.00 0.00 57 1016.4
20260507204733 80 127 1.0 6.0 0.00 0.00 0.00 57 1016.4
20260507204708 80 302 1.0 6.0 0.00 0.00 0.00 57 1016.4
20260507204607 80 304 1.0 6.0 0.00 0.00 0.00 58 1016.4
20260507204508 80 304 2.0 6.0 0.00 0.00 0.00 59 1016.4
20260507204407 80 99 2.0 6.0 0.00 0.00 0.00 58 1016.4
20260507204307 80 41 1.0 6.0 0.00 0.00 0.00 57 1016.4
20260507204232 80 43 1.0 6.0 0.00 0.00 0.00 57 1016.4
20260507204207 80 322 1.0 6.0 0.00 0.00 0.00 57 1016.4
20260507204108 80 323 1.0 6.0 0.00 0.00 0.00 57 1016.4
20260507204007 80 342 1.0 6.0 0.00 0.00 0.00 57 1016.4
20260507203908 80 358 1.0 6.0 0.00 0.00 0.00 56 1016.4
20260507203807 80 338 1.0 6.0 0.00 0.00 0.00 56 1016.4
20260507203734 81 355 1.0 6.0 0.00 0.00 0.00 57 1016.4
20260507203708 81 5 1.0 6.0 0.00 0.00 0.00 57 1016.4
20260507203607 80 291 1.0 6.0 0.00 0.00 0.00 58 1016.5
20260507203511 80 153 2.0 6.0 0.00 0.00 0.00 58 1016.4
20260507203407 80 154 2.0 6.0 0.00 0.00 0.00 59 1016.4
20260507203303 80 158 2.0 6.0 0.00 0.00 0.00 59 1016.5
20260507203230 80 159 2.0 6.0 0.00 0.00 0.00 59 1016.5
20260507203214 79 231 2.0 6.0 0.00 0.00 0.00 58 1016.5
20260507203203 80 330 2.0 6.0 0.00 0.00 0.00 59 1016.5
20260507203111 80 330 2.0 6.0 0.00 0.00 0.00 60 1016.5
20260507203103 79 330 2.0 6.0 0.00 0.00 0.00 60 1016.5
20260507202903 79 16 2.0 6.0 0.00 0.00 0.00 58 1016.5
20260507202841 79 126 2.0 6.0 0.00 0.00 0.00 58 1016.5
20260507202703 79 221 2.0 6.0 0.00 0.00 0.00 57 1016.5
20260507202604 80 235 2.0 6.0 0.00 0.00 0.00 58 1016.6
20260507202503 80 231 2.0 6.0 0.00 0.00 0.00 58 1016.6
20260507202402 79 138 2.0 5.0 0.00 0.00 0.00 59 1016.6
20260507202306 80 153 2.0 5.0 0.00 0.00 0.00 59 1016.6
20260507202229 80 303 2.0 5.0 0.00 0.00 0.00 59 1016.7
20260507202203 80 27 2.0 5.0 0.00 0.00 0.00 58 1016.7
20260507202104 80 11 2.0 5.0 0.00 0.00 0.00 58 1016.6
20260507202004 80 332 2.0 5.0 0.00 0.00 0.00 58 1016.6
20260507201903 80 267 2.0 5.0 0.00 0.00 0.00 59 1016.7
20260507201803 80 245 1.0 5.0 0.00 0.00 0.00 57 1016.7
20260507201729 80 231 1.0 5.0 0.00 0.00 0.00 57 1016.7
20260507201703 80 208 1.0 5.0 0.00 0.00 0.00 57 1016.7
20260507201603 80 211 1.0 3.0 0.00 0.00 0.00 57 1016.7
20260507201504 80 216 1.0 3.0 0.00 0.00 0.00 56 1016.7
20260507201359 80 225 1.0 3.0 0.00 0.00 0.00 57 1016.7
20260507201259 80 158 1.0 3.0 0.00 0.00 0.00 58 1016.7
20260507201230 80 120 1.0 3.0 0.00 0.00 0.00 59 1016.7
20260507201222 79 319 2.0 7.0 0.00 0.00 0.00 60 1016.7
20260507201159 80 207 1.0 4.0 0.00 0.00 0.00 60 1016.7
20260507201111 79 229 1.0 5.0 0.00 0.00 0.00 60 1016.7
20260507201102 79 236 2.0 7.0 0.00 0.00 0.00 60 1016.7
20260507200859 79 200 2.0 7.0 0.00 0.00 0.00 60 1016.8
20260507200840 79 319 2.0 7.0 0.00 0.00 0.00 60 1016.7
20260507200659 79 321 2.0 7.0 0.00 0.00 0.00 59 1016.7
20260507200559 79 340 2.0 7.0 0.00 0.00 0.00 59 1016.7
20260507200458 79 316 2.0 7.0 0.00 0.00 0.00 59 1016.8
20260507200359 79 235 3.0 7.0 0.00 0.00 0.00 60 1016.8
20260507200259 79 238 3.0 7.0 0.00 0.00 0.00 59 1016.8
20260507200242 79 316 3.0 7.0 0.00 0.00 0.00 59 1016.8
20260507200159 79 212 3.0 7.0 0.00 0.00 0.00 59 1016.8
20260507200100 79 217 3.0 7.0 0.00 0.00 0.00 59 1016.8
20260507195958 78 127 3.0 7.0 0.00 0.00 0.00 60 1016.8
20260507195859 78 176 3.0 7.0 0.00 0.00 0.00 59 1016.8
20260507195759 78 176 3.0 7.0 0.00 0.00 0.00 59 1016.8
20260507195733 78 150 3.0 7.0 0.00 0.00 0.00 59 1016.8
20260507195718 77 228 3.0 7.0 0.00 0.00 0.00 62 1017.0
20260507195659 78 240 3.0 7.0 0.00 0.00 0.00 59 1016.8
20260507195608 77 131 4.0 7.0 0.00 0.00 0.00 60 1016.8
20260507195454 77 146 3.0 7.0 0.00 0.00 0.00 61 1016.9
20260507195355 77 156 3.0 7.0 0.00 0.00 0.00 61 1016.9
20260507195344 77 191 3.0 7.0 0.00 0.00 0.00 62 1016.9
20260507195200 77 229 3.0 7.0 0.00 0.00 0.00 61 1017.0
20260507195055 77 229 3.0 7.0 0.00 0.00 0.00 61 1017.0
20260507194954 77 224 2.0 7.0 0.00 0.00 0.00 60 1017.0
20260507194945 78 243 2.0 6.0 0.00 0.00 0.00 59 1017.1
20260507194855 77 225 2.0 7.0 0.00 0.00 0.00 59 1017.0
20260507194836 78 228 2.0 7.0 0.00 0.00 0.00 59 1017.1
20260507194655 78 229 2.0 5.0 0.00 0.00 0.00 59 1017.1
20260507194555 78 228 1.0 5.0 0.00 0.00 0.00 60 1017.1
20260507194454 78 236 1.0 5.0 0.00 0.00 0.00 61 1017.0
20260507194355 78 236 2.0 5.0 0.00 0.00 0.00 59 1017.1
20260507194255 78 214 2.0 5.0 0.00 0.00 0.00 60 1017.1
20260507194225 78 236 2.0 5.0 0.00 0.00 0.00 60 1017.1
20260507194155 78 238 2.0 6.0 0.00 0.00 0.00 60 1017.1
20260507194054 78 228 2.0 6.0 0.00 0.00 0.00 61 1017.1
20260507193955 77 216 2.0 6.0 0.00 0.00 0.00 62 1017.1
20260507193855 77 215 2.0 6.0 0.00 0.00 0.00 61 1017.1
20260507193756 77 208 2.0 6.0 0.00 0.00 0.00 61 1017.1
20260507193724 77 208 2.0 6.0 0.00 0.00 0.00 61 1017.1
20260507193655 77 203 2.0 6.0 0.00 0.00 0.00 61 1017.1
20260507193551 77 197 2.0 6.0 0.00 0.00 0.00 61 1017.2
20260507193451 77 225 2.0 6.0 0.00 0.00 0.00 61 1017.2
20260507193351 77 249 2.0 6.0 0.00 0.00 0.00 60 1017.2
20260507193251 77 226 2.0 6.0 0.00 0.00 0.00 60 1017.2
20260507193225 77 240 2.0 6.0 0.00 0.00 0.00 61 1017.2
20260507193151 77 250 2.0 7.0 0.00 0.00 0.00 62 1017.2
20260507193054 77 204 2.0 7.0 0.00 0.00 0.00 63 1017.3
20260507192950 77 204 2.0 7.0 0.00 0.00 0.00 63 1017.3
20260507192851 76 204 2.0 7.0 0.00 0.00 0.00 63 1017.2
20260507192751 76 245 2.0 7.0 0.00 0.00 0.00 63 1017.2
20260507192730 76 233 2.0 7.0 0.00 0.00 0.00 63 1017.3
20260507192651 76 238 2.0 7.0 0.00 0.00 0.00 63 1017.3
20260507192551 76 229 2.0 7.0 0.00 0.00 0.00 61 1017.3
20260507192451 76 233 1.0 7.0 0.00 0.00 0.00 62 1017.3
20260507192350 76 248 1.0 7.0 0.00 0.00 0.00 61 1017.4
20260507192251 77 257 1.0 7.0 0.00 0.00 0.00 62 1017.4
20260507192225 77 236 1.0 7.0 0.00 0.00 0.00 62 1017.3
20260507192151 77 321 1.0 3.0 0.00 0.00 0.00 62 1017.3
20260507192051 77 44 0.0 3.0 0.00 0.00 0.00 62 1017.3
20260507191956 76 286 1.0 4.0 0.00 0.00 0.00 62 1017.4
20260507191951 76 309 1.0 3.0 0.00 0.00 0.00 63 1017.4
20260507191851 76 53 1.0 3.0 0.00 0.00 0.00 62 1017.4
20260507191834 76 61 1.0 4.0 0.00 0.00 0.00 62 1017.4
20260507191650 76 44 1.0 4.0 0.00 0.00 0.00 61 1017.4
20260507191546 76 30 1.0 4.0 0.00 0.00 0.00 62 1017.5
20260507191446 76 314 1.0 4.0 0.00 0.00 0.00 63 1017.5
20260507191347 76 207 1.0 7.0 0.00 0.00 0.00 63 1017.5
20260507191247 76 197 2.0 7.0 0.00 0.00 0.00 62 1017.5
20260507191226 76 198 2.0 7.0 0.00 0.00 0.00 62 1017.6
20260507191147 76 198 2.0 7.0 0.00 0.00 0.00 63 1017.6
20260507191047 75 235 2.0 7.0 0.00 0.00 0.00 65 1017.5
20260507190955 74 238 3.0 7.0 0.00 0.00 0.00 65 1017.5
20260507190947 75 235 2.0 7.0 0.00 0.00 0.00 65 1017.5
20260507190847 75 218 2.0 7.0 0.00 0.00 0.00 66 1017.6
20260507190836 74 238 2.0 7.0 0.00 0.00 0.00 65 1017.6
20260507190650 74 241 3.0 7.0 0.00 0.00 0.00 67 1017.5
20260507190547 74 150 3.0 7.0 0.00 0.00 0.00 66 1017.5
20260507190447 73 211 3.0 7.0 0.00 0.00 0.00 66 1017.6
20260507190347 73 195 3.0 7.0 0.00 0.00 0.00 66 1017.6
20260507190247 73 208 3.0 7.0 0.00 0.00 0.00 65 1017.6
20260507190223 73 232 2.0 7.0 0.00 0.00 0.00 65 1017.6
20260507190147 73 235 2.0 7.0 0.00 0.00 0.00 66 1017.6
20260507190047 73 226 2.0 7.0 0.00 0.00 0.00 65 1017.6
20260507185947 73 218 2.0 7.0 0.00 0.00 0.00 65 1017.6
20260507185847 74 218 2.0 7.0 0.00 0.00 0.00 64 1017.7
20260507185746 74 248 2.0 7.0 0.00 0.00 0.00 65 1017.6
20260507185721 74 240 2.0 7.0 0.00 0.00 0.00 65 1017.6
20260507185643 74 224 2.0 6.0 0.00 0.00 0.00 67 1017.7
20260507185544 73 232 2.0 6.0 0.00 0.00 0.00 66 1017.7
20260507185443 73 259 2.0 6.0 0.00 0.00 0.00 65 1017.7
20260507185343 73 225 2.0 6.0 0.00 0.00 0.00 64 1017.7
20260507185243 73 233 2.0 6.0 0.00 0.00 0.00 65 1017.7
20260507185221 73 260 2.0 6.0 0.00 0.00 0.00 65 1017.7
20260507185143 73 233 2.0 6.0 0.00 0.00 0.00 66 1017.7
20260507185043 73 228 2.0 6.0 0.00 0.00 0.00 66 1017.7
20260507184947 73 278 2.0 7.0 0.00 0.00 0.00 66 1017.8
20260507184942 73 231 2.0 6.0 0.00 0.00 0.00 67 1017.8
20260507184843 73 242 2.0 7.0 0.00 0.00 0.00 67 1017.8
20260507184833 73 278 2.0 7.0 0.00 0.00 0.00 67 1017.8
20260507184643 73 226 2.0 7.0 0.00 0.00 0.00 66 1017.7
20260507184542 73 250 2.0 7.0 0.00 0.00 0.00 65 1017.8
20260507184443 73 211 2.0 7.0 0.00 0.00 0.00 65 1017.8
20260507184343 73 208 2.0 7.0 0.00 0.00 0.00 65 1017.8
20260507184243 73 233 2.0 7.0 0.00 0.00 0.00 66 1017.8
20260507184221 73 224 2.0 7.0 0.00 0.00 0.00 67 1017.8
20260507184145 73 228 2.0 7.0 0.00 0.00 0.00 67 1017.7
20260507184043 73 226 2.0 7.0 0.00 0.00 0.00 68 1017.8
20260507183944 73 226 2.0 7.0 0.00 0.00 0.00 67 1017.8
20260507183839 73 224 2.0 6.0 0.00 0.00 0.00 67 1017.8
20260507183721 72 207 2.0 6.0 0.00 0.00 0.00 67 1017.8
20260507183639 72 200 2.0 6.0 0.00 0.00 0.00 67 1017.8
20260507183539 72 231 2.0 6.0 0.00 0.00 0.00 66 1017.8
20260507183439 72 235 2.0 6.0 0.00 0.00 0.00 67 1017.9
20260507183339 72 221 3.0 6.0 0.00 0.00 0.00 67 1017.9
20260507183239 72 233 3.0 8.0 0.00 0.00 0.00 67 1017.9
20260507183222 72 252 3.0 8.0 0.00 0.00 0.00 67 1017.9
20260507183144 72 217 3.0 8.0 0.00 0.00 0.00 67 1017.9
20260507183039 72 216 3.0 8.0 0.00 0.00 0.00 66 1017.9
20260507182940 72 233 2.0 8.0 0.00 0.00 0.00 67 1017.9
20260507182839 72 239 2.0 8.0 0.00 0.00 0.00 68 1017.9
20260507182721 72 155 2.0 8.0 0.00 0.00 0.00 69 1017.9
20260507182639 72 155 2.0 8.0 0.00 0.00 0.00 67 1017.9
20260507182541 72 146 2.0 8.0 0.00 0.00 0.00 68 1017.9
20260507182445 72 150 1.0 6.0 0.00 0.00 0.00 65 1017.9
20260507182439 72 243 2.0 8.0 0.00 0.00 0.00 67 1017.9
20260507182342 72 205 2.0 8.0 0.00 0.00 0.00 66 1017.9
20260507182333 72 201 1.0 6.0 0.00 0.00 0.00 65 1017.9
20260507182139 72 153 1.0 6.0 0.00 0.00 0.00 66 1017.9
20260507182039 72 210 1.0 6.0 0.00 0.00 0.00 67 1018.0
20260507181944 72 314 2.0 6.0 0.00 0.00 0.00 69 1018.0
20260507181935 72 314 2.0 6.0 0.00 0.00 0.00 67 1018.0
20260507181835 72 314 2.0 6.0 0.00 0.00 0.00 68 1018.0
20260507181827 72 314 2.0 6.0 0.00 0.00 0.00 69 1018.0
20260507181635 72 262 2.0 6.0 0.00 0.00 0.00 68 1018.0
20260507181535 72 240 2.0 6.0 0.00 0.00 0.00 68 1017.9
20260507181435 72 216 2.0 6.0 0.00 0.00 0.00 67 1017.9
20260507181335 72 186 2.0 6.0 0.00 0.00 0.00 68 1017.9
20260507181235 71 234 2.0 7.0 0.00 0.00 0.00 69 1018.0
20260507181217 71 231 2.0 7.0 0.00 0.00 0.00 69 1018.0
20260507181135 71 74 3.0 7.0 0.00 0.00 0.00 68 1018.0
20260507181035 71 139 2.0 7.0 0.00 0.00 0.00 68 1018.0
20260507180934 71 242 2.0 7.0 0.00 0.00 0.00 68 1018.0
20260507180835 71 252 2.0 7.0 0.00 0.00 0.00 69 1018.0
20260507180740 71 212 2.0 7.0 0.00 0.00 0.00 69 1017.9
20260507180730 71 208 2.0 7.0 0.00 0.00 0.00 69 1017.9
20260507180638 71 143 2.0 7.0 0.00 0.00 0.00 69 1018.0
20260507180535 71 225 2.0 7.0 0.00 0.00 0.00 69 1018.0
20260507180439 71 212 1.0 5.0 0.00 0.00 0.00 67 1018.0
20260507180434 71 187 2.0 7.0 0.00 0.00 0.00 67 1018.0
20260507180336 71 233 1.0 7.0 0.00 0.00 0.00 67 1018.0
20260507180327 71 236 1.0 5.0 0.00 0.00 0.00 67 1018.0
20260507180135 71 163 1.0 5.0 0.00 0.00 0.00 67 1018.0
20260507180031 71 219 1.0 5.0 0.00 0.00 0.00 69 1018.0
20260507175931 71 224 1.0 5.0 0.00 0.00 0.00 68 1018.0
20260507175831 71 224 1.0 5.0 0.00 0.00 0.00 68 1018.0
20260507175731 71 226 1.0 5.0 0.00 0.00 0.00 68 1018.0
20260507175720 71 229 1.0 5.0 0.00 0.00 0.00 68 1018.0
20260507175631 71 233 1.0 5.0 0.00 0.00 0.00 67 1018.1
20260507175531 71 232 1.0 4.0 0.00 0.00 0.00 68 1018.1
20260507175431 71 238 1.0 5.0 0.00 0.00 0.00 69 1018.1
20260507175331 71 143 1.0 5.0 0.00 0.00 0.00 69 1018.1
20260507175234 71 138 1.0 5.0 0.00 0.00 0.00 68 1018.1
20260507175216 71 139 1.0 5.0 0.00 0.00 0.00 68 1018.1
20260507175131 71 232 1.0 5.0 0.00 0.00 0.00 68 1018.1
20260507175031 71 233 1.0 5.0 0.00 0.00 0.00 68 1018.1
20260507174931 71 233 1.0 5.0 0.00 0.00 0.00 68 1018.1
20260507174830 71 218 1.0 5.0 0.00 0.00 0.00 68 1018.1
20260507174732 71 217 1.0 5.0 0.00 0.00 0.00 69 1018.0
20260507174719 71 298 1.0 5.0 0.00 0.00 0.00 69 1018.0
20260507174631 71 219 1.0 5.0 0.00 0.00 0.00 69 1018.1
20260507174532 71 233 0.0 5.0 0.00 0.00 0.00 69 1018.1
20260507174431 71 223 0.0 2.0 0.00 0.00 0.00 70 1018.1
20260507174331 71 222 0.0 2.0 0.00 0.00 0.00 70 1018.1
20260507174217 71 222 0.0 2.0 0.00 0.00 0.00 70 1018.1
20260507174126 71 278 0.0 2.0 0.00 0.00 0.00 70 1018.1
20260507174027 70 278 0.0 2.0 0.00 0.00 0.00 70 1018.1
20260507173927 70 278 0.0 2.0 0.00 0.00 0.00 70 1018.1
20260507173828 70 139 0.0 2.0 0.00 0.00 0.00 70 1018.1
20260507173716 70 138 0.0 2.0 0.00 0.00 0.00 71 1018.1
20260507173626 70 283 0.0 2.0 0.00 0.00 0.00 71 1018.1
20260507173527 70 283 1.0 4.0 0.00 0.00 0.00 72 1018.1
20260507173427 70 283 1.0 6.0 0.00 0.00 0.00 72 1018.1
20260507173327 69 232 1.0 6.0 0.00 0.00 0.00 72 1018.1
20260507173227 69 226 1.0 6.0 0.00 0.00 0.00 72 1018.1
20260507173213 69 226 1.0 6.0 0.00 0.00 0.00 73 1018.1
20260507173127 69 226 1.0 6.0 0.00 0.00 0.00 73 1018.1
20260507173027 69 226 1.0 6.0 0.00 0.00 0.00 73 1018.1
20260507172927 69 226 1.0 6.0 0.00 0.00 0.00 73 1018.1
20260507172827 68 226 2.0 6.0 0.00 0.00 0.00 73 1018.1
20260507172714 68 214 2.0 6.0 0.00 0.00 0.00 73 1018.2
20260507172627 68 260 2.0 6.0 0.00 0.00 0.00 73 1018.2
20260507172527 68 235 1.0 7.0 0.00 0.00 0.00 73 1018.1
20260507172428 68 231 1.0 7.0 0.00 0.00 0.00 74 1018.1
20260507172328 68 214 1.0 7.0 0.00 0.00 0.00 74 1018.1
20260507172213 68 238 1.0 7.0 0.00 0.00 0.00 74 1018.2
20260507172158 67 285 3.0 7.0 0.00 0.00 0.00 75 1018.2
20260507172123 68 238 2.0 7.0 0.00 0.00 0.00 75 1018.1
20260507172042 67 200 2.0 7.0 0.00 0.00 0.00 75 1018.2
20260507171924 67 250 2.0 7.0 0.00 0.00 0.00 74 1018.1
20260507171832 67 250 2.0 7.0 0.00 0.00 0.00 75 1018.2
20260507171824 67 285 3.0 7.0 0.00 0.00 0.00 75 1018.2
20260507171623 67 285 2.0 7.0 0.00 0.00 0.00 74 1018.1
20260507171523 67 238 2.0 7.0 0.00 0.00 0.00 75 1018.2
20260507171423 67 232 2.0 7.0 0.00 0.00 0.00 76 1018.2
20260507171323 67 235 2.0 7.0 0.00 0.00 0.00 76 1018.2
20260507171215 66 233 2.0 7.0 0.00 0.00 0.00 76 1018.2
20260507171123 66 233 2.0 7.0 0.00 0.00 0.00 75 1018.3
20260507171023 66 221 1.0 7.0 0.00 0.00 0.00 75 1018.2
20260507170923 67 215 1.0 7.0 0.00 0.00 0.00 74 1018.3
20260507170823 67 214 1.0 7.0 0.00 0.00 0.00 75 1018.3
20260507170724 67 217 1.0 4.0 0.00 0.00 0.00 76 1018.3
20260507170714 67 219 1.0 4.0 0.00 0.00 0.00 76 1018.3
20260507170623 66 251 1.0 5.0 0.00 0.00 0.00 77 1018.2
20260507170522 66 250 2.0 6.0 0.00 0.00 0.00 77 1018.3
20260507170423 66 250 2.0 6.0 0.00 0.00 0.00 77 1018.3
20260507170319 66 314 2.0 6.0 0.00 0.00 0.00 77 1018.3
20260507170223 66 314 2.0 6.0 0.00 0.00 0.00 78 1018.3
20260507170213 66 315 2.0 6.0 0.00 0.00 0.00 78 1018.3
20260507170119 65 270 2.0 6.0 0.00 0.00 0.00 78 1018.3
20260507170019 65 270 2.0 6.0 0.00 0.00 0.00 79 1018.3
20260507165919 65 270 3.0 6.0 0.00 0.00 0.00 78 1018.3
20260507165819 65 235 3.0 6.0 0.00 0.00 0.00 78 1018.3
20260507165723 65 146 3.0 6.0 0.00 0.00 0.00 77 1018.2
20260507165713 65 161 3.0 6.0 0.00 0.00 0.00 77 1018.2
20260507165620 65 225 3.0 6.0 0.00 0.00 0.00 78 1018.3
20260507165519 65 245 2.0 6.0 0.00 0.00 0.00 78 1018.3
20260507165419 65 221 2.0 6.0 0.00 0.00 0.00 79 1018.3
20260507165319 65 236 2.0 6.0 0.00 0.00 0.00 79 1018.2
20260507165213 65 236 2.0 6.0 0.00 0.00 0.00 79 1018.3
20260507165119 65 256 2.0 6.0 0.00 0.00 0.00 78 1018.3
20260507165019 65 269 2.0 6.0 0.00 0.00 0.00 77 1018.3
20260507164918 65 212 1.0 6.0 0.00 0.00 0.00 77 1018.3
20260507164819 65 218 1.0 6.0 0.00 0.00 0.00 77 1018.3
20260507164719 65 256 1.0 6.0 0.00 0.00 0.00 78 1018.3
20260507164709 65 250 1.0 6.0 0.00 0.00 0.00 78 1018.3
20260507164619 65 238 1.0 5.0 0.00 0.00 0.00 78 1018.3
20260507164519 65 238 1.0 5.0 0.00 0.00 0.00 77 1018.3
20260507164415 65 238 1.0 5.0 0.00 0.00 0.00 79 1018.3
20260507164315 65 304 1.0 4.0 0.00 0.00 0.00 79 1018.3
20260507164218 65 305 1.0 4.0 0.00 0.00 0.00 79 1018.3
20260507164208 65 242 1.0 4.0 0.00 0.00 0.00 79 1018.3
20260507164115 65 207 1.0 4.0 0.00 0.00 0.00 80 1018.2
20260507164015 65 207 1.0 4.0 0.00 0.00 0.00 79 1018.3
20260507163915 64 207 1.0 4.0 0.00 0.00 0.00 79 1018.2
20260507163815 64 207 1.0 4.0 0.00 0.00 0.00 78 1018.2
20260507163709 64 224 1.0 4.0 0.00 0.00 0.00 79 1018.2
20260507163615 64 212 1.0 4.0 0.00 0.00 0.00 79 1018.2
20260507163515 64 219 0.0 4.0 0.00 0.00 0.00 80 1018.2
20260507163415 64 233 0.0 4.0 0.00 0.00 0.00 80 1018.3
20260507163316 64 233 1.0 4.0 0.00 0.00 0.00 80 1018.3
20260507163221 64 231 0.0 4.0 0.00 0.00 0.00 81 1018.3
20260507163211 64 232 0.0 4.0 0.00 0.00 0.00 81 1018.3
20260507163015 64 232 1.0 4.0 0.00 0.00 0.00 81 1018.3
20260507162915 63 232 1.0 4.0 0.00 0.00 0.00 81 1018.3
20260507162815 63 231 1.0 4.0 0.00 0.00 0.00 82 1018.3
20260507162718 63 230 1.0 4.0 0.00 0.00 0.00 82 1018.3
20260507162708 63 231 1.0 4.0 0.00 0.00 0.00 82 1018.3
20260507162615 63 253 1.0 3.0 0.00 0.00 0.00 83 1018.3
20260507162510 63 49 1.0 4.0 0.00 0.00 0.00 83 1018.3
20260507162411 63 179 2.0 4.0 0.00 0.00 0.00 82 1018.3
20260507162311 63 222 2.0 4.0 0.00 0.00 0.00 84 1018.4
20260507162212 62 222 2.0 4.0 0.00 0.00 0.00 83 1018.4
20260507162111 62 222 2.0 4.0 0.00 0.00 0.00 83 1018.4
20260507162011 62 238 2.0 4.0 0.00 0.00 0.00 82 1018.4
20260507161911 62 225 2.0 4.0 0.00 0.00 0.00 82 1018.4
20260507161811 62 224 2.0 4.0 0.00 0.00 0.00 82 1018.4
20260507161713 62 172 1.0 4.0 0.00 0.00 0.00 82 1018.4
20260507161611 62 215 1.0 4.0 0.00 0.00 0.00 82 1018.4
20260507161510 62 164 1.0 4.0 0.00 0.00 0.00 82 1018.4
20260507161411 62 200 1.0 5.0 0.00 0.00 0.00 82 1018.4
20260507161310 62 225 1.0 5.0 0.00 0.00 0.00 82 1018.4
20260507161213 62 226 1.0 5.0 0.00 0.00 0.00 82 1018.4
20260507161111 62 226 1.0 5.0 0.00 0.00 0.00 84 1018.4
20260507161011 62 228 1.0 5.0 0.00 0.00 0.00 84 1018.4
20260507160911 62 222 1.0 5.0 0.00 0.00 0.00 84 1018.4
20260507160810 62 232 1.0 5.0 0.00 0.00 0.00 84 1018.4
20260507160713 62 232 1.0 5.0 0.00 0.00 0.00 84 1018.4
20260507160607 62 232 1.0 5.0 0.00 0.00 0.00 84 1018.4
20260507160507 62 232 1.0 5.0 0.00 0.00 0.00 84 1018.4
20260507160407 62 231 0.0 4.0 0.00 0.00 0.00 85 1018.4
20260507160307 62 219 0.0 2.0 0.00 0.00 0.00 86 1018.4
20260507160210 61 228 0.0 3.0 0.00 0.00 0.00 86 1018.4
20260507160107 61 228 0.0 3.0 0.00 0.00 0.00 86 1018.4
20260507160007 61 240 1.0 3.0 0.00 0.00 0.00 86 1018.4
20260507155907 61 240 1.0 3.0 0.00 0.00 0.00 86 1018.4
20260507155807 60 231 1.0 3.0 0.00 0.00 0.00 87 1018.4
20260507155710 60 229 1.0 3.0 0.00 0.00 0.00 87 1018.5
20260507155607 60 248 1.0 3.0 0.00 0.00 0.00 88 1018.5
20260507155507 60 248 1.0 3.0 0.00 0.00 0.00 88 1018.5
20260507155407 60 243 1.0 3.0 0.00 0.00 0.00 88 1018.5
20260507155307 60 240 1.0 3.0 0.00 0.00 0.00 88 1018.5
20260507155209 60 221 1.0 4.0 0.00 0.00 0.00 88 1018.5
20260507155107 60 218 1.0 4.0 0.00 0.00 0.00 88 1018.5
20260507155007 59 210 1.0 4.0 0.00 0.00 0.00 89 1018.5
20260507154927 59 226 1.0 4.0 0.00 0.00 0.00 90 1018.5
20260507154907 59 156 1.0 4.0 0.00 0.00 0.00 89 1018.5
20260507154823 59 149 1.0 4.0 0.00 0.00 0.00 90 1018.5
20260507154703 59 228 1.0 4.0 0.00 0.00 0.00 90 1018.5
20260507154603 59 229 1.0 4.0 0.00 0.00 0.00 90 1018.5
20260507154504 58 230 2.0 4.0 0.00 0.00 0.00 90 1018.5
20260507154403 58 229 2.0 4.0 0.00 0.00 0.00 90 1018.5
20260507154303 58 231 2.0 4.0 0.00 0.00 0.00 90 1018.5
20260507154209 58 232 2.0 4.0 0.00 0.00 0.00 91 1018.5
20260507154203 58 232 2.0 4.0 0.00 0.00 0.00 91 1018.5
20260507154103 58 142 2.0 4.0 0.00 0.00 0.00 91 1018.5
20260507154003 58 221 2.0 4.0 0.00 0.00 0.00 91 1018.5
20260507153904 58 228 2.0 4.0 0.00 0.00 0.00 91 1018.5
20260507153803 58 216 2.0 4.0 0.00 0.00 0.00 91 1018.5
20260507153710 57 235 2.0 4.0 0.00 0.00 0.00 91 1018.5
20260507153703 57 235 2.0 4.0 0.00 0.00 0.00 91 1018.5
20260507153647 57 132 1.0 4.0 0.00 0.00 0.00 92 1018.5
20260507153603 57 235 2.0 4.0 0.00 0.00 0.00 92 1018.5
20260507153539 57 230 1.0 4.0 0.00 0.00 0.00 92 1018.5
20260507153403 57 222 1.0 4.0 0.00 0.00 0.00 92 1018.5
20260507153320 57 243 1.0 4.0 0.00 0.00 0.00 92 1018.5
20260507153203 57 132 1.0 4.0 0.00 0.00 0.00 92 1018.5
20260507153103 57 235 2.0 5.0 0.00 0.00 0.00 92 1018.5
20260507153004 56 233 2.0 5.0 0.00 0.00 0.00 92 1018.5
20260507152902 56 232 2.0 5.0 0.00 0.00 0.00 92 1018.5
20260507152759 56 240 2.0 7.0 0.00 0.00 0.00 93 1018.5
20260507152706 56 233 2.0 7.0 0.00 0.00 0.00 93 1018.5
20260507152659 56 232 2.0 7.0 0.00 0.00 0.00 93 1018.5
20260507152559 56 235 2.0 7.0 0.00 0.00 0.00 92 1018.6
20260507152458 56 235 3.0 7.0 0.00 0.00 0.00 92 1018.5
20260507152359 56 237 3.0 7.0 0.00 0.00 0.00 92 1018.5
20260507152259 56 226 3.0 7.0 0.00 0.00 0.00 92 1018.5
20260507152205 56 187 3.0 7.0 0.00 0.00 0.00 92 1018.5
20260507152159 56 208 3.0 7.0 0.00 0.00 0.00 92 1018.5
20260507152059 56 233 3.0 7.0 0.00 0.00 0.00 92 1018.5
20260507151959 56 238 3.0 7.0 0.00 0.00 0.00 92 1018.5
20260507151858 56 243 3.0 7.0 0.00 0.00 0.00 92 1018.5
20260507151759 56 219 3.0 7.0 0.00 0.00 0.00 93 1018.5
20260507151705 56 245 3.0 7.0 0.00 0.00 0.00 93 1018.5
20260507151659 56 243 3.0 7.0 0.00 0.00 0.00 93 1018.5
20260507151559 56 235 3.0 7.0 0.00 0.00 0.00 93 1018.5
20260507151459 56 214 3.0 7.0 0.00 0.00 0.00 92 1018.5
20260507151359 56 228 3.0 7.0 0.00 0.00 0.00 92 1018.6
20260507151258 56 240 3.0 7.0 0.00 0.00 0.00 93 1018.6
20260507151205 56 245 3.0 7.0 0.00 0.00 0.00 93 1018.5
20260507151159 56 229 3.0 7.0 0.00 0.00 0.00 93 1018.5
20260507151059 56 257 3.0 7.0 0.00 0.00 0.00 93 1018.5
20260507150959 56 238 3.0 7.0 0.00 0.00 0.00 93 1018.5
20260507150855 56 228 3.0 7.0 0.00 0.00 0.00 93 1018.5
20260507150755 56 229 2.0 6.0 0.00 0.00 0.00 93 1018.5
20260507150701 55 226 2.0 6.0 0.00 0.00 0.00 93 1018.4
20260507150655 55 228 2.0 6.0 0.00 0.00 0.00 93 1018.4
20260507150556 55 222 2.0 6.0 0.00 0.00 0.00 93 1018.5
20260507150455 55 224 2.0 6.0 0.00 0.00 0.00 93 1018.5
20260507150355 55 207 2.0 6.0 0.00 0.00 0.00 93 1018.5
20260507150255 55 259 2.0 7.0 0.00 0.00 0.00 93 1018.5
20260507150203 55 212 2.0 7.0 0.00 0.00 0.00 93 1018.5
20260507150155 55 233 2.0 8.0 0.00 0.00 0.00 93 1018.5
20260507150055 55 186 3.0 8.0 0.00 0.00 0.00 93 1018.5
20260507145955 55 198 3.0 8.0 0.00 0.00 0.00 93 1018.5
20260507145855 55 228 3.0 8.0 0.00 0.00 0.00 93 1018.5
20260507145755 55 228 3.0 8.0 0.00 0.00 0.00 93 1018.5
20260507145655 55 228 4.0 8.0 0.00 0.00 0.00 93 1018.6
20260507145555 55 158 4.0 8.0 0.00 0.00 0.00 93 1018.5
20260507145455 55 195 4.0 8.0 0.00 0.00 0.00 93 1018.5
20260507145355 55 244 4.0 8.0 0.00 0.00 0.00 93 1018.5
20260507145256 55 238 4.0 8.0 0.00 0.00 0.00 93 1018.5
20260507145203 55 248 4.0 8.0 0.00 0.00 0.00 93 1018.6
20260507145155 55 248 4.0 7.0 0.00 0.00 0.00 93 1018.6
20260507145056 55 239 3.0 7.0 0.00 0.00 0.00 93 1018.5
20260507144951 55 230 3.0 7.0 0.00 0.00 0.00 93 1018.5
20260507144851 55 167 3.0 7.0 0.00 0.00 0.00 93 1018.6
20260507144751 55 222 3.0 7.0 0.00 0.00 0.00 93 1018.6
20260507144706 55 236 2.0 7.0 0.00 0.00 0.00 93 1018.5
20260507144651 55 224 2.0 7.0 0.00 0.00 0.00 93 1018.5
20260507144551 55 174 2.0 7.0 0.00 0.00 0.00 93 1018.6
20260507144451 55 233 2.0 7.0 0.00 0.00 0.00 93 1018.5
20260507144351 55 233 2.0 7.0 0.00 0.00 0.00 93 1018.5
20260507144250 55 215 2.0 5.0 0.00 0.00 0.00 93 1018.5
20260507144202 55 224 2.0 5.0 0.00 0.00 0.00 93 1018.6
20260507144151 55 226 2.0 6.0 0.00 0.00 0.00 93 1018.6
20260507144051 55 236 2.0 6.0 0.00 0.00 0.00 93 1018.5
20260507143950 55 234 3.0 7.0 0.00 0.00 0.00 93 1018.6
20260507143851 55 260 3.0 7.0 0.00 0.00 0.00 93 1018.6
20260507143751 55 239 3.0 7.0 0.00 0.00 0.00 93 1018.5
20260507143701 55 238 3.0 8.0 0.00 0.00 0.00 93 1018.5
20260507143651 55 250 3.0 8.0 0.00 0.00 0.00 93 1018.5
20260507143551 55 273 3.0 8.0 0.00 0.00 0.00 93 1018.5
20260507143451 55 219 3.0 8.0 0.00 0.00 0.00 93 1018.5
20260507143353 55 248 3.0 8.0 0.00 0.00 0.00 93 1018.6
20260507143251 55 233 3.0 8.0 0.00 0.00 0.00 93 1018.5
20260507143157 55 219 2.0 8.0 0.00 0.00 0.00 93 1018.5
20260507143151 55 221 2.0 8.0 0.00 0.00 0.00 93 1018.5
20260507143047 55 259 2.0 8.0 0.00 0.00 0.00 93 1018.5
20260507142947 55 269 2.0 8.0 0.00 0.00 0.00 93 1018.5
20260507142847 55 217 2.0 8.0 0.00 0.00 0.00 93 1018.4
20260507142747 55 249 1.0 8.0 0.00 0.00 0.00 93 1018.4
20260507142658 55 259 1.0 5.0 0.00 0.00 0.00 93 1018.4
20260507142650 55 155 1.0 5.0 0.00 0.00 0.00 93 1018.4
20260507142547 55 184 1.0 5.0 0.00 0.00 0.00 93 1018.4
20260507142447 55 217 2.0 5.0 0.00 0.00 0.00 93 1018.4
20260507142347 55 205 2.0 5.0 0.00 0.00 0.00 93 1018.3
20260507142247 55 186 2.0 5.0 0.00 0.00 0.00 93 1018.3
20260507142147 55 186 2.0 5.0 0.00 0.00 0.00 93 1018.3
20260507142137 55 221 2.0 5.0 0.00 0.00 0.00 93 1018.3
20260507142047 55 226 2.0 5.0 0.00 0.00 0.00 93 1018.3
20260507142024 55 238 2.0 5.0 0.00 0.00 0.00 93 1018.3
20260507141846 55 214 2.0 5.0 0.00 0.00 0.00 93 1018.3
20260507141807 55 226 2.0 5.0 0.00 0.00 0.00 93 1018.3
20260507141650 55 219 2.0 5.0 0.00 0.00 0.00 93 1018.3
20260507141547 55 231 3.0 5.0 0.00 0.00 0.00 93 1018.4
20260507141447 55 221 3.0 5.0 0.00 0.00 0.00 93 1018.4
20260507141349 55 212 3.0 5.0 0.00 0.00 0.00 93 1018.4
20260507141247 55 232 3.0 5.0 0.00 0.00 0.00 93 1018.4
20260507141159 55 222 3.0 5.0 0.00 0.00 0.00 93 1018.4
20260507141142 55 123 3.0 5.0 0.00 0.00 0.00 93 1018.4
20260507141043 55 173 3.0 5.0 0.00 0.00 0.00 93 1018.4
20260507140943 55 195 2.0 5.0 0.00 0.00 0.00 93 1018.4
20260507140917 55 241 2.0 5.0 0.00 0.00 0.00 93 1018.4
20260507140843 55 217 2.0 5.0 0.00 0.00 0.00 93 1018.4
20260507140808 55 236 2.0 5.0 0.00 0.00 0.00 93 1018.4
20260507140643 55 248 2.0 5.0 0.00 0.00 0.00 93 1018.3
20260507140544 55 240 2.0 5.0 0.00 0.00 0.00 93 1018.3
20260507140443 55 238 2.0 5.0 0.00 0.00 0.00 93 1018.4
20260507140343 55 231 1.0 5.0 0.00 0.00 0.00 93 1018.3
20260507140243 55 232 1.0 5.0 0.00 0.00 0.00 93 1018.4
20260507140156 55 236 1.0 4.0 0.00 0.00 0.00 93 1018.4
20260507140144 55 207 1.0 4.0 0.00 0.00 0.00 93 1018.3
20260507140043 55 188 1.0 4.0 0.00 0.00 0.00 93 1018.4
20260507135943 55 200 1.0 4.0 0.00 0.00 0.00 93 1018.3
20260507135843 55 200 1.0 4.0 0.00 0.00 0.00 93 1018.4
20260507135744 55 238 1.0 6.0 0.00 0.00 0.00 93 1018.3
20260507135657 55 224 1.0 6.0 0.00 0.00 0.00 93 1018.3
20260507135644 55 242 1.0 6.0 0.00 0.00 0.00 93 1018.3
20260507135542 55 158 1.0 6.0 0.00 0.00 0.00 93 1018.2
20260507135443 55 150 2.0 6.0 0.00 0.00 0.00 93 1018.2
20260507135344 54 203 2.0 6.0 0.00 0.00 0.00 93 1018.2
20260507135238 54 139 2.0 6.0 0.00 0.00 0.00 93 1018.2
20260507135157 54 140 2.0 6.0 0.00 0.00 0.00 93 1018.2
20260507135139 54 143 2.0 6.0 0.00 0.00 0.00 93 1018.2
20260507135039 54 212 2.0 6.0 0.00 0.00 0.00 93 1018.2
20260507134939 54 230 2.0 6.0 0.00 0.00 0.00 93 1018.2
20260507134839 54 155 2.0 6.0 0.00 0.00 0.00 93 1018.2
20260507134739 54 258 2.0 5.0 0.00 0.00 0.00 93 1018.2
20260507134653 54 238 2.0 5.0 0.00 0.00 0.00 93 1018.2
20260507134639 54 221 2.0 5.0 0.00 0.00 0.00 93 1018.2
20260507134539 54 232 2.0 5.0 0.00 0.00 0.00 93 1018.2
20260507134438 54 199 2.0 5.0 0.00 0.00 0.00 93 1018.2
20260507134339 54 177 2.0 5.0 0.00 0.00 0.00 93 1018.2
20260507134238 54 240 2.0 5.0 0.00 0.00 0.00 93 1018.1
20260507134153 54 245 2.0 5.0 0.00 0.00 0.00 93 1018.1
20260507134139 54 233 1.0 5.0 0.00 0.00 0.00 93 1018.1
20260507134038 54 238 1.0 5.0 0.00 0.00 0.00 93 1018.1
20260507133939 54 236 1.0 5.0 0.00 0.00 0.00 93 1018.1
20260507133839 54 236 2.0 5.0 0.00 0.00 0.00 93 1018.1
20260507133739 54 145 2.0 5.0 0.00 0.00 0.00 93 1018.1
20260507133653 54 145 2.0 5.0 0.00 0.00 0.00 93 1018.1
20260507133639 54 146 2.0 5.0 0.00 0.00 0.00 93 1018.1
20260507133540 54 229 2.0 5.0 0.00 0.00 0.00 93 1018.1
20260507133439 54 139 2.0 5.0 0.00 0.00 0.00 93 1018.1
20260507133336 54 228 2.0 5.0 0.00 0.00 0.00 93 1018.1
20260507133235 54 211 2.0 6.0 0.00 0.00 0.00 93 1018.1
20260507133153 54 243 2.0 6.0 0.00 0.00 0.00 93 1018.1
20260507133135 54 190 2.0 6.0 0.00 0.00 0.00 93 1018.1
20260507133035 54 141 2.0 6.0 0.00 0.00 0.00 93 1018.0
20260507132935 54 238 2.0 6.0 0.00 0.00 0.00 93 1018.0
20260507132834 54 252 2.0 6.0 0.00 0.00 0.00 93 1018.0
20260507132735 54 222 2.0 6.0 0.00 0.00 0.00 93 1017.9
20260507132652 54 222 2.0 6.0 0.00 0.00 0.00 93 1017.9
20260507132635 54 222 2.0 6.0 0.00 0.00 0.00 93 1018.0
20260507132535 54 222 2.0 6.0 0.00 0.00 0.00 93 1018.0
20260507132435 54 226 2.0 6.0 0.00 0.00 0.00 93 1018.0
20260507132334 54 242 2.0 6.0 0.00 0.00 0.00 93 1017.9
20260507132235 54 236 2.0 5.0 0.00 0.00 0.00 93 1018.0
20260507132154 54 225 2.0 5.0 0.00 0.00 0.00 93 1018.0
20260507132135 54 215 2.0 5.0 0.00 0.00 0.00 93 1017.9
20260507132035 54 215 2.0 5.0 0.00 0.00 0.00 93 1017.9
20260507131935 54 242 2.0 5.0 0.00 0.00 0.00 93 1017.9
20260507131835 54 232 2.0 5.0 0.00 0.00 0.00 93 1017.9
20260507131734 54 211 2.0 5.0 0.00 0.00 0.00 93 1017.9
20260507131653 54 235 2.0 5.0 0.00 0.00 0.00 93 1017.9
20260507131635 54 181 2.0 5.0 0.00 0.00 0.00 93 1017.9
20260507131535 54 145 2.0 5.0 0.00 0.00 0.00 93 1017.8
20260507131431 54 203 1.0 5.0 0.00 0.00 0.00 93 1017.8
20260507131409 54 233 1.0 5.0 0.00 0.00 0.00 93 1017.9
20260507131332 54 214 1.0 5.0 0.00 0.00 0.00 93 1017.9
20260507131304 54 211 1.0 5.0 0.00 0.00 0.00 93 1017.9
20260507131130 54 236 1.0 5.0 0.00 0.00 0.00 93 1017.8
20260507131031 54 210 1.0 5.0 0.00 0.00 0.00 93 1017.9
20260507130931 54 230 1.0 5.0 0.00 0.00 0.00 93 1017.8
20260507130832 54 207 1.0 3.0 0.00 0.00 0.00 93 1017.8
20260507130734 54 212 0.0 2.0 0.00 0.00 0.00 93 1017.9
20260507130652 54 214 0.0 2.0 0.00 0.00 0.00 93 1017.9
20260507130631 54 218 0.0 2.0 0.00 0.00 0.00 93 1017.8
20260507130532 54 218 1.0 2.0 0.00 0.00 0.00 93 1017.8
20260507130431 54 218 1.0 2.0 0.00 0.00 0.00 93 1017.8
20260507130330 54 218 1.0 2.0 0.00 0.00 0.00 93 1017.8
20260507130232 54 218 0.0 2.0 0.00 0.00 0.00 93 1017.8
20260507130148 54 218 0.0 2.0 0.00 0.00 0.00 92 1017.8
20260507130131 54 200 0.0 2.0 0.00 0.00 0.00 93 1017.8
20260507130030 54 139 0.0 2.0 0.00 0.00 0.00 92 1017.8
20260507125931 54 214 0.0 2.0 0.00 0.00 0.00 92 1017.8
20260507125914 54 214 0.0 2.0 0.00 0.00 0.00 92 1017.8
20260507125831 54 214 0.0 2.0 0.00 0.00 0.00 93 1017.8
20260507125759 54 214 0.0 2.0 0.00 0.00 0.00 92 1017.8
20260507125631 54 214 0.0 2.0 0.00 0.00 0.00 92 1017.8
20260507125527 54 214 0.0 2.0 0.00 0.00 0.00 92 1017.8
20260507125427 54 214 0.0 2.0 0.00 0.00 0.00 92 1017.8
20260507125327 54 214 0.0 2.0 0.00 0.00 0.00 92 1017.8
20260507125228 54 215 0.0 2.0 0.00 0.00 0.00 92 1017.8
20260507125138 54 198 0.0 2.0 0.00 0.00 0.00 92 1017.8
20260507125127 54 217 0.0 2.0 0.00 0.00 0.00 92 1017.8
20260507125037 54 217 0.0 2.0 0.00 0.00 0.00 92 1017.8
20260507125028 54 217 0.0 2.0 0.00 0.00 0.00 92 1017.8
20260507124827 54 223 0.0 2.0 0.00 0.00 0.00 92 1017.8
20260507124800 54 198 0.0 2.0 0.00 0.00 0.00 92 1017.8
20260507124627 54 198 0.0 2.0 0.00 0.00 0.00 92 1017.7
20260507124528 54 198 0.0 2.0 0.00 0.00 0.00 92 1017.7
20260507124427 54 198 0.0 2.0 0.00 0.00 0.00 92 1017.7
20260507124327 54 198 0.0 2.0 0.00 0.00 0.00 92 1017.7
20260507124227 54 198 0.0 2.0 0.00 0.00 0.00 92 1017.7
20260507124127 54 231 0.0 1.0 0.00 0.00 0.00 92 1017.7
20260507124027 54 231 0.0 1.0 0.00 0.00 0.00 92 1017.7
20260507123927 54 231 0.0 1.0 0.00 0.00 0.00 92 1017.7
20260507123827 54 231 0.0 1.0 0.00 0.00 0.00 92 1017.7
20260507123727 54 141 0.0 1.0 0.00 0.00 0.00 92 1017.7
20260507123649 54 139 0.0 1.0 0.00 0.00 0.00 92 1017.7
20260507123623 54 141 0.0 1.0 0.00 0.00 0.00 92 1017.7
20260507123523 54 141 0.0 1.0 0.00 0.00 0.00 92 1017.7
20260507123422 54 141 0.0 1.0 0.00 0.00 0.00 92 1017.7
20260507123323 54 139 0.0 1.0 0.00 0.00 0.00 92 1017.7
20260507123223 54 139 0.0 1.0 0.00 0.00 0.00 92 1017.7
20260507123149 54 139 0.0 1.0 0.00 0.00 0.00 92 1017.7
20260507123124 54 141 0.0 1.0 0.00 0.00 0.00 92 1017.7
20260507123023 54 141 0.0 1.0 0.00 0.00 0.00 92 1017.7
20260507122923 54 139 0.0 1.0 0.00 0.00 0.00 92 1017.7
20260507122823 55 139 0.0 1.0 0.00 0.00 0.00 92 1017.7
20260507122723 55 139 0.0 1.0 0.00 0.00 0.00 92 1017.7
20260507122623 55 139 0.0 2.0 0.00 0.00 0.00 92 1017.7
20260507122523 55 140 0.0 2.0 0.00 0.00 0.00 92 1017.7
20260507122423 55 140 0.0 2.0 0.00 0.00 0.00 92 1017.7
20260507122323 55 225 0.0 3.0 0.00 0.00 0.00 92 1017.7
20260507122223 55 225 1.0 4.0 0.00 0.00 0.00 92 1017.7
20260507122123 55 225 1.0 4.0 0.00 0.00 0.00 92 1017.7
20260507122023 55 225 1.0 4.0 0.00 0.00 0.00 92 1017.7
20260507121923 55 146 1.0 4.0 0.00 0.00 0.00 92 1017.7
20260507121823 55 148 1.0 4.0 0.00 0.00 0.00 92 1017.7
20260507121719 55 173 0.0 4.0 0.00 0.00 0.00 92 1017.7
20260507121648 55 200 0.0 4.0 0.00 0.00 0.00 92 1017.7
20260507121619 55 200 1.0 4.0 0.00 0.00 0.00 92 1017.7
20260507121518 55 200 1.0 4.0 0.00 0.00 0.00 92 1017.7
20260507121419 55 155 1.0 4.0 0.00 0.00 0.00 92 1017.7
20260507121319 55 207 0.0 4.0 0.00 0.00 0.00 92 1017.7
20260507121219 55 232 0.0 2.0 0.00 0.00 0.00 92 1017.7
20260507121119 55 232 0.0 2.0 0.00 0.00 0.00 92 1017.7
20260507121019 55 232 0.0 2.0 0.00 0.00 0.00 92 1017.7
20260507120920 55 233 0.0 2.0 0.00 0.00 0.00 92 1017.7
20260507120912 55 232 0.0 2.0 0.00 0.00 0.00 92 1017.7
20260507120819 55 232 0.0 2.0 0.00 0.00 0.00 92 1017.7
20260507120759 55 232 0.0 2.0 0.00 0.00 0.00 92 1017.7
20260507120619 55 232 0.0 2.0 0.00 0.00 0.00 92 1017.7
20260507120518 55 236 0.0 2.0 0.00 0.00 0.00 92 1017.6
20260507120419 55 236 0.0 2.0 0.00 0.00 0.00 92 1017.6
20260507120404 55 236 0.0 2.0 0.00 0.00 0.00 92 1017.6
20260507120319 55 236 0.0 2.0 0.00 0.00 0.00 92 1017.6
20260507120255 55 236 0.0 2.0 0.00 0.00 0.00 92 1017.6
20260507120119 55 236 0.0 2.0 0.00 0.00 0.00 92 1017.6
20260507120019 55 230 0.0 2.0 0.00 0.00 0.00 92 1017.6
20260507115920 55 198 0.0 2.0 0.00 0.00 0.00 92 1017.6
20260507115815 55 197 0.0 3.0 0.00 0.00 0.00 92 1017.6
20260507115715 55 197 0.0 3.0 0.00 0.00 0.00 92 1017.6
20260507115648 55 198 0.0 3.0 0.00 0.00 0.00 92 1017.6
20260507115614 55 197 1.0 3.0 0.00 0.00 0.00 92 1017.6
20260507115515 55 197 1.0 3.0 0.00 0.00 0.00 92 1017.6
20260507115417 55 197 1.0 3.0 0.00 0.00 0.00 92 1017.6
20260507115409 55 198 1.0 3.0 0.00 0.00 0.00 92 1017.7
20260507115315 55 198 1.0 3.0 0.00 0.00 0.00 92 1017.7
20260507115255 55 198 1.0 3.0 0.00 0.00 0.00 92 1017.7
20260507115015 55 197 1.0 3.0 0.00 0.00 0.00 92 1017.6
20260507114916 55 150 1.0 3.0 0.00 0.00 0.00 92 1017.6
20260507114816 55 203 1.0 3.0 0.00 0.00 0.00 92 1017.6
20260507114715 55 229 1.0 3.0 0.00 0.00 0.00 92 1017.6
20260507114647 55 211 1.0 3.0 0.00 0.00 0.00 92 1017.6
20260507114615 55 211 1.0 3.0 0.00 0.00 0.00 92 1017.6
20260507114515 55 229 1.0 3.0 0.00 0.00 0.00 92 1017.6
20260507114416 55 211 1.0 3.0 0.00 0.00 0.00 92 1017.6
20260507114407 55 198 1.0 2.0 0.00 0.00 0.00 92 1017.6
20260507114314 55 228 1.0 2.0 0.00 0.00 0.00 92 1017.6
20260507114258 55 198 1.0 2.0 0.00 0.00 0.00 92 1017.6
20260507114115 55 198 1.0 2.0 0.00 0.00 0.00 92 1017.6
20260507114015 55 243 1.0 2.0 0.00 0.00 0.00 92 1017.6
20260507113911 55 228 0.0 2.0 0.00 0.00 0.00 92 1017.6
20260507113811 55 217 0.0 2.0 0.00 0.00 0.00 92 1017.6
20260507113711 55 197 0.0 2.0 0.00 0.00 0.00 92 1017.6
20260507113648 55 217 0.0 2.0 0.00 0.00 0.00 92 1017.6
20260507113611 55 217 0.0 2.0 0.00 0.00 0.00 92 1017.6
20260507113511 55 214 0.0 2.0 0.00 0.00 0.00 92 1017.6
20260507113411 55 162 0.0 2.0 0.00 0.00 0.00 92 1017.6
20260507113311 55 214 0.0 1.0 0.00 0.00 0.00 92 1017.6
20260507113211 55 146 0.0 1.0 0.00 0.00 0.00 92 1017.6
20260507113142 55 146 0.0 1.0 0.00 0.00 0.00 92 1017.6
20260507113111 55 146 0.0 1.0 0.00 0.00 0.00 92 1017.6
20260507113011 55 146 0.0 1.0 0.00 0.00 0.00 92 1017.6
20260507112912 55 146 0.0 1.0 0.00 0.00 0.00 92 1017.6
20260507112903 55 146 0.0 1.0 0.00 0.00 0.00 92 1017.6
20260507112812 55 146 0.0 1.0 0.00 0.00 0.00 92 1017.6
20260507112754 55 146 0.0 1.0 0.00 0.00 0.00 92 1017.6
20260507112611 55 146 0.0 1.0 0.00 0.00 0.00 92 1017.6
20260507112511 55 146 0.0 1.0 0.00 0.00 0.00 92 1017.7
20260507112411 55 211 0.0 1.0 0.00 0.00 0.00 92 1017.7
20260507112311 55 211 0.0 1.0 0.00 0.00 0.00 92 1017.7
20260507112210 55 212 0.0 1.0 0.00 0.00 0.00 92 1017.7
20260507112111 55 211 0.0 0.0 0.00 0.00 0.00 92 1017.7
20260507112008 55 211 0.0 0.0 0.00 0.00 0.00 92 1017.7
20260507111907 55 211 0.0 0.0 0.00 0.00 0.00 92 1017.7
20260507111807 55 211 0.0 0.0 0.00 0.00 0.00 92 1017.6
20260507111708 55 211 0.0 0.0 0.00 0.00 0.00 92 1017.6
20260507111654 55 212 0.0 0.0 0.00 0.00 0.00 92 1017.6
20260507111606 55 212 0.0 0.0 0.00 0.00 0.00 92 1017.6
20260507111509 55 211 0.0 0.0 0.00 0.00 0.00 92 1017.6
20260507111411 55 212 0.0 0.0 0.00 0.00 0.00 92 1017.6
20260507111407 55 211 0.0 0.0 0.00 0.00 0.00 92 1017.6
20260507111307 55 211 0.0 0.0 0.00 0.00 0.00 92 1017.6
20260507111251 55 211 0.0 0.0 0.00 0.00 0.00 92 1017.6
20260507111107 55 211 0.0 0.0 0.00 0.00 0.00 92 1017.6
20260507111007 55 211 0.0 0.0 0.00 0.00 0.00 92 1017.6
20260507110907 55 211 0.0 0.0 0.00 0.00 0.00 92 1017.6
20260507110807 55 211 0.0 0.0 0.00 0.00 0.00 92 1017.6
20260507110707 55 211 0.0 0.0 0.00 0.00 0.00 92 1017.6
20260507110641 55 211 0.0 0.0 0.00 0.00 0.00 92 1017.6
20260507110607 55 212 0.0 0.0 0.00 0.00 0.00 92 1017.6
20260507110508 55 211 0.0 0.0 0.00 0.00 0.00 92 1017.6
20260507110407 55 211 0.0 0.0 0.00 0.00 0.00 92 1017.5
20260507110307 55 211 0.0 1.0 0.00 0.00 0.00 92 1017.5
20260507110207 55 212 0.0 1.0 0.00 0.00 0.00 92 1017.6
20260507110141 55 211 0.0 1.0 0.00 0.00 0.00 92 1017.5
20260507110103 55 210 0.0 1.0 0.00 0.00 0.00 92 1017.5
20260507110003 55 211 0.0 1.0 0.00 0.00 0.00 92 1017.5
20260507105903 55 211 0.0 1.0 0.00 0.00 0.00 91 1017.5
20260507105803 55 211 0.0 1.0 0.00 0.00 0.00 91 1017.5
20260507105641 55 211 0.0 1.0 0.00 0.00 0.00 91 1017.5
20260507105602 55 212 0.0 1.0 0.00 0.00 0.00 91 1017.5
20260507105503 55 211 0.0 1.0 0.00 0.00 0.00 91 1017.5
20260507105407 55 211 0.0 0.0 0.00 0.00 0.00 91 1017.5
20260507105403 55 211 0.0 1.0 0.00 0.00 0.00 91 1017.5
20260507105306 55 211 0.0 1.0 0.00 0.00 0.00 91 1017.5
20260507105252 55 211 0.0 1.0 0.00 0.00 0.00 91 1017.5
20260507105103 55 211 0.0 1.0 0.00 0.00 0.00 91 1017.5
20260507105003 55 211 0.0 1.0 0.00 0.00 0.00 91 1017.5
20260507104903 55 211 0.0 1.0 0.00 0.00 0.00 91 1017.5
20260507104804 56 212 0.0 1.0 0.00 0.00 0.00 91 1017.5
20260507104637 56 211 0.0 1.0 0.00 0.00 0.00 91 1017.5
20260507104602 56 211 0.0 1.0 0.00 0.00 0.00 91 1017.5
20260507104504 56 210 0.0 1.0 0.00 0.00 0.00 91 1017.5
20260507104404 56 211 0.0 1.0 0.00 0.00 0.00 91 1017.5
20260507104303 56 211 0.0 1.0 0.00 0.00 0.00 91 1017.5
20260507104159 56 211 0.0 1.0 0.00 0.00 0.00 91 1017.4
20260507104136 56 211 0.0 1.0 0.00 0.00 0.00 91 1017.5
20260507104059 56 210 0.0 1.0 0.00 0.00 0.00 91 1017.5
20260507103959 56 211 0.0 1.0 0.00 0.00 0.00 91 1017.5
20260507103906 56 211 0.0 1.0 0.00 0.00 0.00 91 1017.4
20260507103859 56 211 0.0 1.0 0.00 0.00 0.00 91 1017.5
20260507103800 56 211 0.0 1.0 0.00 0.00 0.00 91 1017.5
20260507103752 56 211 0.0 1.0 0.00 0.00 0.00 91 1017.5
20260507103559 56 211 0.0 1.0 0.00 0.00 0.00 91 1017.4
20260507103459 56 211 0.0 1.0 0.00 0.00 0.00 91 1017.5
20260507103403 56 211 0.0 3.0 0.00 0.00 0.00 90 1017.5
20260507103359 56 211 0.0 1.0 0.00 0.00 0.00 91 1017.5
20260507103259 56 210 0.0 2.0 0.00 0.00 0.00 91 1017.5
20260507103249 56 211 0.0 2.0 0.00 0.00 0.00 90 1017.6
20260507103059 56 212 0.0 3.0 0.00 0.00 0.00 90 1017.5
20260507102959 56 211 0.0 3.0 0.00 0.00 0.00 91 1017.5
20260507102859 56 211 0.0 3.0 0.00 0.00 0.00 90 1017.5
20260507102759 56 212 1.0 3.0 0.00 0.00 0.00 91 1017.6
20260507102637 56 211 1.0 3.0 0.00 0.00 0.00 90 1017.6
20260507102559 56 211 1.0 3.0 0.00 0.00 0.00 91 1017.6
20260507102459 56 211 1.0 3.0 0.00 0.00 0.00 91 1017.5
20260507102358 56 211 1.0 3.0 0.00 0.00 0.00 91 1017.6
20260507102255 56 235 1.0 3.0 0.00 0.00 0.00 91 1017.5
20260507102155 56 236 1.0 3.0 0.00 0.00 0.00 90 1017.5
20260507102138 56 225 1.0 2.0 0.00 0.00 0.00 90 1017.5
20260507102054 56 148 1.0 2.0 0.00 0.00 0.00 90 1017.5
20260507101955 56 148 1.0 2.0 0.00 0.00 0.00 90 1017.5
20260507101855 56 148 1.0 3.0 0.00 0.00 0.00 90 1017.5
20260507101754 56 236 1.0 3.0 0.00 0.00 0.00 90 1017.5
20260507101637 56 236 1.0 3.0 0.00 0.00 0.00 90 1017.5
20260507101555 56 236 1.0 3.0 0.00 0.00 0.00 90 1017.5
20260507101455 56 229 1.0 3.0 0.00 0.00 0.00 90 1017.4
20260507101400 56 226 2.0 4.0 0.00 0.00 0.00 91 1017.5
20260507101355 56 229 1.0 4.0 0.00 0.00 0.00 90 1017.4
20260507101255 56 229 1.0 4.0 0.00 0.00 0.00 90 1017.4
20260507101246 56 226 1.0 4.0 0.00 0.00 0.00 91 1017.4
20260507101055 56 226 2.0 4.0 0.00 0.00 0.00 91 1017.5
20260507100955 56 226 2.0 4.0 0.00 0.00 0.00 91 1017.4
20260507100855 56 174 1.0 4.0 0.00 0.00 0.00 91 1017.5
20260507100755 56 233 1.0 4.0 0.00 0.00 0.00 91 1017.5
20260507100655 56 198 1.0 4.0 0.00 0.00 0.00 91 1017.5
20260507100637 56 129 1.0 4.0 0.00 0.00 0.00 91 1017.5
20260507100555 56 236 1.0 4.0 0.00 0.00 0.00 91 1017.5
20260507100455 56 197 1.0 4.0 0.00 0.00 0.00 91 1017.5
20260507100351 56 228 0.0 3.0 0.00 0.00 0.00 91 1017.5
20260507100251 56 169 0.0 3.0 0.00 0.00 0.00 91 1017.4
20260507100151 56 221 0.0 3.0 0.00 0.00 0.00 91 1017.4
20260507100133 56 204 0.0 3.0 0.00 0.00 0.00 91 1017.5
20260507100051 56 231 0.0 3.0 0.00 0.00 0.00 90 1017.5
20260507095951 56 178 0.0 2.0 0.00 0.00 0.00 90 1017.5
20260507095851 56 203 0.0 2.0 0.00 0.00 0.00 90 1017.5
20260507095751 56 203 0.0 2.0 0.00 0.00 0.00 90 1017.5
20260507095632 56 203 0.0 2.0 0.00 0.00 0.00 90 1017.4
20260507095551 56 203 0.0 2.0 0.00 0.00 0.00 90 1017.4
20260507095451 56 203 1.0 2.0 0.00 0.00 0.00 90 1017.5
20260507095351 56 203 1.0 3.0 0.00 0.00 0.00 90 1017.5
20260507095251 56 203 1.0 3.0 0.00 0.00 0.00 90 1017.5
20260507095151 56 203 1.0 3.0 0.00 0.00 0.00 90 1017.5
20260507095132 56 203 1.0 3.0 0.00 0.00 0.00 90 1017.4
20260507095051 56 203 1.0 3.0 0.00 0.00 0.00 90 1017.4
20260507094951 56 210 1.0 3.0 0.00 0.00 0.00 90 1017.5
20260507094851 56 203 1.0 5.0 0.00 0.00 0.00 90 1017.5
20260507094750 56 203 1.0 5.0 0.00 0.00 0.00 90 1017.5
20260507094651 56 203 1.0 5.0 0.00 0.00 0.00 90 1017.4
20260507094633 56 203 1.0 5.0 0.00 0.00 0.00 90 1017.5
20260507094551 56 203 1.0 5.0 0.00 0.00 0.00 90 1017.5
20260507094447 57 198 1.0 5.0 0.00 0.00 0.00 90 1017.5
20260507094347 57 210 2.0 5.0 0.00 0.00 0.00 90 1017.5
20260507094247 57 231 2.0 5.0 0.00 0.00 0.00 90 1017.5
20260507094147 57 231 2.0 5.0 0.00 0.00 0.00 90 1017.5
20260507094133 57 230 2.0 5.0 0.00 0.00 0.00 90 1017.5
20260507094047 57 231 2.0 5.0 0.00 0.00 0.00 90 1017.5
20260507093946 57 219 2.0 5.0 0.00 0.00 0.00 90 1017.5
20260507093847 57 233 2.0 6.0 0.00 0.00 0.00 90 1017.5
20260507093747 57 232 2.0 6.0 0.00 0.00 0.00 90 1017.6
20260507093650 57 235 3.0 6.0 0.00 0.00 0.00 90 1017.6
20260507093633 57 235 2.0 6.0 0.00 0.00 0.00 90 1017.6
20260507093546 57 235 2.0 6.0 0.00 0.00 0.00 90 1017.6
20260507093447 57 240 2.0 6.0 0.00 0.00 0.00 90 1017.6
20260507093347 57 233 2.0 6.0 0.00 0.00 0.00 90 1017.6
20260507093246 57 203 2.0 6.0 0.00 0.00 0.00 90 1017.6
20260507093147 57 250 2.0 6.0 0.00 0.00 0.00 90 1017.6
20260507093132 57 233 2.0 6.0 0.00 0.00 0.00 90 1017.6
20260507093047 57 259 2.0 6.0 0.00 0.00 0.00 90 1017.6
20260507092947 57 232 2.0 6.0 0.00 0.00 0.00 90 1017.6
20260507092847 57 233 2.0 5.0 0.00 0.00 0.00 90 1017.6
20260507092747 56 233 2.0 5.0 0.00 0.00 0.00 90 1017.6
20260507092633 56 232 2.0 5.0 0.00 0.00 0.00 90 1017.6
20260507092543 56 193 2.0 5.0 0.00 0.00 0.00 90 1017.6
20260507092443 56 203 1.0 5.0 0.00 0.00 0.00 90 1017.6
20260507092343 56 212 1.0 5.0 0.00 0.00 0.00 90 1017.6
20260507092243 56 235 1.0 5.0 0.00 0.00 0.00 90 1017.6
20260507092132 56 233 1.0 5.0 0.00 0.00 0.00 90 1017.6
20260507092043 56 257 1.0 5.0 0.00 0.00 0.00 90 1017.6
20260507091943 56 222 1.0 5.0 0.00 0.00 0.00 90 1017.6
20260507091843 56 212 1.0 5.0 0.00 0.00 0.00 90 1017.6
20260507091743 56 217 1.0 5.0 0.00 0.00 0.00 90 1017.6
20260507091652 56 225 0.0 3.0 0.00 0.00 0.00 90 1017.6
20260507091641 56 203 0.0 2.0 0.00 0.00 0.00 90 1017.6
20260507091543 56 174 0.0 2.0 0.00 0.00 0.00 90 1017.6
20260507091444 56 174 0.0 2.0 0.00 0.00 0.00 90 1017.6
20260507091344 56 177 0.0 2.0 0.00 0.00 0.00 90 1017.6
20260507091243 56 177 0.0 2.0 0.00 0.00 0.00 90 1017.6
20260507091143 57 177 0.0 2.0 0.00 0.00 0.00 89 1017.7
20260507091129 57 205 0.0 2.0 0.00 0.00 0.00 89 1017.7
20260507091043 57 205 0.0 2.0 0.00 0.00 0.00 90 1017.7
20260507090943 57 205 0.0 2.0 0.00 0.00 0.00 89 1017.7
20260507090842 57 143 0.0 1.0 0.00 0.00 0.00 89 1017.7
20260507090743 57 143 0.0 1.0 0.00 0.00 0.00 89 1017.7
20260507090641 57 150 0.0 1.0 0.00 0.00 0.00 89 1017.7
20260507090539 57 150 0.0 1.0 0.00 0.00 0.00 89 1017.6
20260507090439 57 150 0.0 1.0 0.00 0.00 0.00 89 1017.6
20260507090339 57 136 0.0 1.0 0.00 0.00 0.00 89 1017.6
20260507090239 57 150 0.0 2.0 0.00 0.00 0.00 89 1017.6
20260507090128 57 151 0.0 2.0 0.00 0.00 0.00 89 1017.6
20260507090039 57 152 0.0 2.0 0.00 0.00 0.00 89 1017.6
20260507085939 57 167 0.0 2.0 0.00 0.00 0.00 89 1017.6
20260507085838 57 97 0.0 2.0 0.00 0.00 0.00 89 1017.7
20260507085739 57 98 0.0 2.0 0.00 0.00 0.00 89 1017.7
20260507085639 57 97 0.0 2.0 0.00 0.00 0.00 89 1017.7
20260507085628 57 98 0.0 2.0 0.00 0.00 0.00 89 1017.7
20260507085539 57 98 0.0 2.0 0.00 0.00 0.00 89 1017.7
20260507085439 57 98 0.0 2.0 0.00 0.00 0.00 89 1017.7
20260507085351 57 236 0.0 1.0 0.00 0.00 0.00 89 1017.7
20260507085339 57 152 0.0 2.0 0.00 0.00 0.00 89 1017.7
20260507085249 57 143 0.0 2.0 0.00 0.00 0.00 89 1017.7
20260507085240 57 236 0.0 1.0 0.00 0.00 0.00 89 1017.7
20260507085039 57 236 0.0 1.0 0.00 0.00 0.00 89 1017.7
20260507084939 57 236 0.0 1.0 0.00 0.00 0.00 89 1017.7
20260507084839 57 236 0.0 1.0 0.00 0.00 0.00 89 1017.7
20260507084735 57 236 0.0 1.0 0.00 0.00 0.00 89 1017.7
20260507084629 57 236 0.0 1.0 0.00 0.00 0.00 89 1017.7
20260507084535 57 236 0.0 1.0 0.00 0.00 0.00 88 1017.8
20260507084435 57 236 0.0 1.0 0.00 0.00 0.00 88 1017.7
20260507084351 57 236 0.0 1.0 0.00 0.00 0.00 88 1017.8
20260507084335 57 236 0.0 1.0 0.00 0.00 0.00 88 1017.8
20260507084248 57 236 0.0 1.0 0.00 0.00 0.00 88 1017.8
20260507084240 57 236 0.0 1.0 0.00 0.00 0.00 88 1017.8
20260507084035 57 236 0.0 1.0 0.00 0.00 0.00 88 1017.8
20260507083935 57 236 0.0 1.0 0.00 0.00 0.00 88 1017.8
20260507083835 57 237 0.0 1.0 0.00 0.00 0.00 88 1017.8
20260507083734 57 236 0.0 1.0 0.00 0.00 0.00 88 1017.8
20260507083630 57 236 0.0 1.0 0.00 0.00 0.00 88 1017.8
20260507083535 57 236 0.0 1.0 0.00 0.00 0.00 88 1017.8
20260507083435 57 236 0.0 1.0 0.00 0.00 0.00 88 1017.8
20260507083335 57 236 0.0 1.0 0.00 0.00 0.00 88 1017.8
20260507083235 57 236 0.0 1.0 0.00 0.00 0.00 87 1017.8
20260507083125 57 236 0.0 1.0 0.00 0.00 0.00 88 1017.8
20260507083035 58 237 0.0 1.0 0.00 0.00 0.00 88 1017.8
20260507082935 57 236 0.0 1.0 0.00 0.00 0.00 88 1017.7
20260507082831 58 236 0.0 1.0 0.00 0.00 0.00 88 1017.7
20260507082731 57 236 0.0 1.0 0.00 0.00 0.00 88 1017.8
20260507082626 57 236 0.0 1.0 0.00 0.00 0.00 88 1017.7
20260507082531 57 236 0.0 1.0 0.00 0.00 0.00 88 1017.7
20260507082431 57 236 0.0 1.0 0.00 0.00 0.00 87 1017.7
20260507082348 57 236 0.0 1.0 0.00 0.00 0.00 87 1017.8
20260507082331 57 236 0.0 1.0 0.00 0.00 0.00 87 1017.7
20260507082244 57 236 0.0 1.0 0.00 0.00 0.00 87 1017.8
20260507082236 57 236 0.0 1.0 0.00 0.00 0.00 87 1017.8
20260507082031 58 236 0.0 1.0 0.00 0.00 0.00 87 1017.7
20260507081931 58 236 0.0 1.0 0.00 0.00 0.00 87 1017.7
20260507081841 58 236 0.0 1.0 0.00 0.00 0.00 87 1017.7
20260507081831 58 236 0.0 1.0 0.00 0.00 0.00 87 1017.7
20260507081747 58 236 0.0 0.0 0.00 0.00 0.00 87 1017.7
20260507081735 58 236 0.0 1.0 0.00 0.00 0.00 87 1017.7
20260507081531 58 236 0.0 1.0 0.00 0.00 0.00 87 1017.7
20260507081431 58 236 0.0 1.0 0.00 0.00 0.00 87 1017.7
20260507081330 58 236 0.0 1.0 0.00 0.00 0.00 86 1017.7
20260507081234 58 237 0.0 1.0 0.00 0.00 0.00 86 1017.7
20260507081125 58 236 0.0 1.0 0.00 0.00 0.00 87 1017.7
20260507081031 58 236 0.0 1.0 0.00 0.00 0.00 86 1017.7
20260507080927 58 236 0.0 1.0 0.00 0.00 0.00 87 1017.7
20260507080826 58 236 0.0 1.0 0.00 0.00 0.00 86 1017.6
20260507080727 58 236 0.0 1.0 0.00 0.00 0.00 86 1017.6
20260507080628 58 236 0.0 1.0 0.00 0.00 0.00 86 1017.6
20260507080526 58 236 0.0 1.0 0.00 0.00 0.00 86 1017.7
20260507080428 58 236 0.0 1.0 0.00 0.00 0.00 86 1017.7
20260507080327 58 236 0.0 1.0 0.00 0.00 0.00 86 1017.7
20260507080227 58 236 0.0 1.0 0.00 0.00 0.00 86 1017.7
20260507080142 58 236 0.0 1.0 0.00 0.00 0.00 86 1017.6
20260507080027 58 236 0.0 1.0 0.00 0.00 0.00 86 1017.6
20260507075926 58 236 0.0 1.0 0.00 0.00 0.00 86 1017.7
20260507075827 58 236 0.0 1.0 0.00 0.00 0.00 86 1017.6
20260507075727 58 236 0.0 1.0 0.00 0.00 0.00 86 1017.6
20260507075633 58 236 0.0 1.0 0.00 0.00 0.00 86 1017.6
20260507075527 58 236 0.0 1.0 0.00 0.00 0.00 86 1017.6
20260507075427 58 236 0.0 1.0 0.00 0.00 0.00 86 1017.6
20260507075327 58 236 0.0 1.0 0.00 0.00 0.00 85 1017.6
20260507075227 58 236 0.0 1.0 0.00 0.00 0.00 85 1017.6
20260507075128 58 236 0.0 1.0 0.00 0.00 0.00 85 1017.6
20260507075023 58 236 0.0 1.0 0.00 0.00 0.00 85 1017.6
20260507074924 58 236 0.0 1.0 0.00 0.00 0.00 85 1017.6
20260507074823 58 236 0.0 1.0 0.00 0.00 0.00 85 1017.6
20260507074723 58 236 0.0 1.0 0.00 0.00 0.00 85 1017.6
20260507074625 58 236 0.0 1.0 0.00 0.00 0.00 85 1017.6
20260507074522 58 236 0.0 1.0 0.00 0.00 0.00 85 1017.6
20260507074423 58 236 0.0 1.0 0.00 0.00 0.00 85 1017.6
20260507074323 58 236 0.0 1.0 0.00 0.00 0.00 85 1017.6
20260507074223 58 236 0.0 1.0 0.00 0.00 0.00 85 1017.6
20260507074125 58 236 0.0 1.0 0.00 0.00 0.00 85 1017.6
20260507074023 58 236 0.0 1.0 0.00 0.00 0.00 84 1017.6
20260507073923 59 236 0.0 1.0 0.00 0.00 0.00 84 1017.6
20260507073823 59 237 0.0 1.0 0.00 0.00 0.00 84 1017.6
20260507073723 59 237 0.0 1.0 0.00 0.00 0.00 84 1017.6
20260507073624 59 236 0.0 1.0 0.00 0.00 0.00 84 1017.6
20260507073523 59 236 0.0 1.0 0.00 0.00 0.00 84 1017.6
20260507073424 59 236 0.0 1.0 0.00 0.00 0.00 84 1017.5
20260507073323 59 236 0.0 1.0 0.00 0.00 0.00 84 1017.6
20260507073223 59 236 0.0 1.0 0.00 0.00 0.00 83 1017.5
20260507073119 59 236 0.0 1.0 0.00 0.00 0.00 83 1017.6
20260507073018 59 236 0.0 2.0 0.00 0.00 0.00 83 1017.6
20260507072919 59 236 0.0 3.0 0.00 0.00 0.00 83 1017.5
20260507072819 59 236 0.0 4.0 0.00 0.00 0.00 83 1017.5
20260507072719 59 236 1.0 4.0 0.00 0.00 0.00 83 1017.5
20260507072619 59 236 1.0 4.0 0.00 0.00 0.00 83 1017.6
20260507072520 59 237 1.0 4.0 0.00 0.00 0.00 83 1017.5
20260507072419 59 236 1.0 4.0 0.00 0.00 0.00 83 1017.5
20260507072319 59 236 1.0 4.0 0.00 0.00 0.00 83 1017.5
20260507072219 59 236 1.0 4.0 0.00 0.00 0.00 83 1017.6
20260507072119 60 236 1.0 4.0 0.00 0.00 0.00 83 1017.6
20260507072019 60 236 1.0 4.0 0.00 0.00 0.00 83 1017.5
20260507071919 60 236 1.0 5.0 0.00 0.00 0.00 83 1017.6
20260507071819 60 210 1.0 5.0 0.00 0.00 0.00 83 1017.6
20260507071718 60 210 1.0 5.0 0.00 0.00 0.00 83 1017.6
20260507071619 60 203 1.0 5.0 0.00 0.00 0.00 83 1017.6
20260507071519 60 240 2.0 5.0 0.00 0.00 0.00 83 1017.6
20260507071419 60 228 2.0 5.0 0.00 0.00 0.00 82 1017.6
20260507071318 60 228 2.0 5.0 0.00 0.00 0.00 82 1017.6
20260507071215 60 228 2.0 5.0 0.00 0.00 0.00 82 1017.6
20260507071116 60 228 2.0 5.0 0.00 0.00 0.00 82 1017.6
20260507071016 60 236 2.0 5.0 0.00 0.00 0.00 82 1017.6
20260507070915 60 221 2.0 7.0 0.00 0.00 0.00 82 1017.6
20260507070815 60 221 3.0 7.0 0.00 0.00 0.00 82 1017.6
20260507070718 60 205 3.0 7.0 0.00 0.00 0.00 82 1017.6
20260507070621 60 218 3.0 9.0 0.00 0.00 0.00 82 1017.5
20260507070615 60 239 3.0 9.0 0.00 0.00 0.00 82 1017.5
20260507070515 60 225 3.0 9.0 0.00 0.00 0.00 82 1017.6
20260507070415 60 213 4.0 9.0 0.00 0.00 0.00 82 1017.6
20260507070341 60 219 4.0 9.0 0.00 0.00 0.00 82 1017.5
20260507070314 60 218 4.0 9.0 0.00 0.00 0.00 82 1017.6
20260507070232 60 221 4.0 9.0 0.00 0.00 0.00 82 1017.5
20260507070115 60 219 4.0 9.0 0.00 0.00 0.00 82 1017.5
20260507070015 60 225 4.0 9.0 0.00 0.00 0.00 82 1017.6
20260507065916 60 218 4.0 9.0 0.00 0.00 0.00 82 1017.5
20260507065816 60 235 3.0 9.0 0.00 0.00 0.00 82 1017.6
20260507065716 60 231 3.0 9.0 0.00 0.00 0.00 82 1017.5
20260507065622 60 212 3.0 8.0 0.00 0.00 0.00 82 1017.5
20260507065615 60 236 3.0 8.0 0.00 0.00 0.00 82 1017.5
20260507065515 60 206 2.0 8.0 0.00 0.00 0.00 82 1017.5
20260507065415 60 238 2.0 6.0 0.00 0.00 0.00 82 1017.6
20260507065309 60 148 2.0 6.0 0.00 0.00 0.00 82 1017.5
20260507065207 60 228 2.0 6.0 0.00 0.00 0.00 82 1017.6
20260507065107 60 219 2.0 6.0 0.00 0.00 0.00 82 1017.6
20260507065007 60 238 2.0 6.0 0.00 0.00 0.00 82 1017.6
20260507064909 60 242 2.0 6.0 0.00 0.00 0.00 81 1017.5
20260507064803 60 223 2.0 6.0 0.00 0.00 0.00 81 1017.6
20260507064703 60 224 3.0 10.0 0.00 0.00 0.00 81 1017.5
20260507064617 60 236 3.0 10.0 0.00 0.00 0.00 81 1017.5
20260507064601 60 236 3.0 10.0 0.00 0.00 0.00 81 1017.5
20260507064502 60 228 3.0 10.0 0.00 0.00 0.00 81 1017.5
20260507064359 60 242 3.0 10.0 0.00 0.00 0.00 81 1017.5
20260507064253 60 238 3.0 10.0 0.00 0.00 0.00 81 1017.5
20260507064153 60 219 3.0 10.0 0.00 0.00 0.00 81 1017.5
20260507064118 60 232 3.0 10.0 0.00 0.00 0.00 81 1017.4
20260507064053 60 225 3.0 10.0 0.00 0.00 0.00 81 1017.4
20260507063951 60 232 3.0 10.0 0.00 0.00 0.00 81 1017.4
20260507063851 60 238 3.0 10.0 0.00 0.00 0.00 81 1017.5
20260507063747 60 239 3.0 10.0 0.00 0.00 0.00 81 1017.5
20260507063647 60 229 2.0 7.0 0.00 0.00 0.00 81 1017.5
20260507063617 60 231 2.0 7.0 0.00 0.00 0.00 81 1017.4
20260507063547 60 233 2.0 7.0 0.00 0.00 0.00 81 1017.4
20260507063447 61 186 3.0 7.0 0.00 0.00 0.00 81 1017.5
20260507063348 61 216 2.0 6.0 0.00 0.00 0.00 81 1017.5
20260507063339 61 233 2.0 6.0 0.00 0.00 0.00 81 1017.4
20260507063239 61 266 2.0 6.0 0.00 0.00 0.00 81 1017.5
20260507063228 61 236 2.0 6.0 0.00 0.00 0.00 81 1017.4
20260507063039 61 225 2.0 6.0 0.00 0.00 0.00 81 1017.4
20260507062937 61 238 2.0 6.0 0.00 0.00 0.00 81 1017.4
20260507062837 61 238 2.0 6.0 0.00 0.00 0.00 80 1017.4
20260507062734 61 235 2.0 6.0 0.00 0.00 0.00 80 1017.5
20260507062631 61 252 2.0 6.0 0.00 0.00 0.00 80 1017.5
20260507062617 61 233 2.0 7.0 0.00 0.00 0.00 80 1017.5
20260507062531 61 233 3.0 7.0 0.00 0.00 0.00 80 1017.4
20260507062432 61 238 3.0 7.0 0.00 0.00 0.00 80 1017.4
20260507062331 61 235 3.0 8.0 0.00 0.00 0.00 80 1017.4
20260507062225 61 255 3.0 10.0 0.00 0.00 0.00 80 1017.4
20260507062125 61 238 3.0 10.0 0.00 0.00 0.00 80 1017.4
20260507062114 61 256 3.0 10.0 0.00 0.00 0.00 80 1017.4
20260507062025 61 236 4.0 10.0 0.00 0.00 0.00 80 1017.4
20260507061925 61 238 4.0 10.0 0.00 0.00 0.00 80 1017.4
20260507061839 61 259 4.0 10.0 0.00 0.00 0.00 80 1017.4
20260507061823 61 238 4.0 10.0 0.00 0.00 0.00 80 1017.5
20260507061737 61 225 4.0 10.0 0.00 0.00 0.00 80 1017.4
20260507061725 61 239 4.0 10.0 0.00 0.00 0.00 80 1017.4
20260507061521 61 201 3.0 10.0 0.00 0.00 0.00 80 1017.5
20260507061421 61 242 3.0 10.0 0.00 0.00 0.00 80 1017.5
20260507061321 61 259 3.0 9.0 0.00 0.00 0.00 80 1017.5
20260507061222 61 262 3.0 9.0 0.00 0.00 0.00 80 1017.5
20260507061116 61 235 3.0 9.0 0.00 0.00 0.00 80 1017.5
20260507061019 61 235 3.0 9.0 0.00 0.00 0.00 80 1017.5
20260507060919 61 195 3.0 9.0 0.00 0.00 0.00 80 1017.5
20260507060819 61 242 3.0 9.0 0.00 0.00 0.00 80 1017.5
20260507060719 61 197 3.0 9.0 0.00 0.00 0.00 80 1017.5
20260507060625 61 236 2.0 9.0 0.00 0.00 0.00 80 1017.4
20260507060615 61 214 2.0 9.0 0.00 0.00 0.00 80 1017.4
20260507060525 61 226 2.0 9.0 0.00 0.00 0.00 80 1017.5
20260507060418 61 193 2.0 9.0 0.00 0.00 0.00 80 1017.4
20260507060317 61 225 2.0 6.0 0.00 0.00 0.00 79 1017.5
20260507060218 61 225 2.0 6.0 0.00 0.00 0.00 80 1017.5
20260507060121 61 212 2.0 6.0 0.00 0.00 0.00 79 1017.5
20260507060018 62 222 2.0 6.0 0.00 0.00 0.00 80 1017.4
20260507055917 62 198 2.0 6.0 0.00 0.00 0.00 80 1017.4
20260507055835 62 230 3.0 6.0 0.00 0.00 0.00 79 1017.4
20260507055817 62 219 2.0 6.0 0.00 0.00 0.00 80 1017.4
20260507055732 62 233 3.0 6.0 0.00 0.00 0.00 79 1017.4
20260507055720 62 240 3.0 6.0 0.00 0.00 0.00 79 1017.4
20260507055518 62 229 3.0 6.0 0.00 0.00 0.00 79 1017.4
20260507055417 62 143 3.0 6.0 0.00 0.00 0.00 79 1017.4
20260507055317 62 243 3.0 6.0 0.00 0.00 0.00 79 1017.3
20260507055217 62 240 3.0 7.0 0.00 0.00 0.00 79 1017.3
20260507055129 62 239 3.0 8.0 0.00 0.00 0.00 79 1017.4
20260507055118 62 236 3.0 8.0 0.00 0.00 0.00 79 1017.4
20260507055017 62 253 3.0 8.0 0.00 0.00 0.00 79 1017.4
20260507054915 62 233 3.0 8.0 0.00 0.00 0.00 79 1017.3
20260507054824 62 235 3.0 8.0 0.00 0.00 0.00 79 1017.3
20260507054816 62 221 3.0 8.0 0.00 0.00 0.00 79 1017.3
20260507054725 62 236 3.0 8.0 0.00 0.00 0.00 79 1017.4
20260507054711 62 235 3.0 8.0 0.00 0.00 0.00 79 1017.3
20260507054515 62 242 3.0 8.0 0.00 0.00 0.00 79 1017.3
20260507054415 62 228 3.0 8.0 0.00 0.00 0.00 79 1017.3
20260507054314 62 224 3.0 8.0 0.00 0.00 0.00 79 1017.3
20260507054213 62 200 2.0 8.0 0.00 0.00 0.00 79 1017.3
20260507054113 62 269 2.0 5.0 0.00 0.00 0.00 79 1017.3
20260507054059 62 236 2.0 5.0 0.00 0.00 0.00 79 1017.3
20260507054014 62 239 2.0 5.0 0.00 0.00 0.00 79 1017.3
20260507053913 62 238 2.0 5.0 0.00 0.00 0.00 79 1017.3
20260507053813 62 240 3.0 8.0 0.00 0.00 0.00 79 1017.3
20260507053713 62 233 3.0 8.0 0.00 0.00 0.00 79 1017.3
20260507053611 62 232 3.0 8.0 0.00 0.00 0.00 79 1017.3
20260507053559 62 232 3.0 8.0 0.00 0.00 0.00 79 1017.3
20260507053511 62 229 3.0 8.0 0.00 0.00 0.00 79 1017.3
20260507053411 62 229 3.0 8.0 0.00 0.00 0.00 79 1017.4
20260507053311 62 174 3.0 8.0 0.00 0.00 0.00 79 1017.4
20260507053211 62 229 3.0 8.0 0.00 0.00 0.00 79 1017.3
20260507053111 63 212 3.0 8.0 0.00 0.00 0.00 79 1017.3
20260507053057 63 228 3.0 8.0 0.00 0.00 0.00 79 1017.3
20260507053011 63 215 3.0 8.0 0.00 0.00 0.00 79 1017.3
20260507052912 63 233 3.0 8.0 0.00 0.00 0.00 79 1017.3
20260507052812 63 221 3.0 7.0 0.00 0.00 0.00 79 1017.3
20260507052711 63 242 3.0 6.0 0.00 0.00 0.00 79 1017.3
20260507052607 63 229 3.0 6.0 0.00 0.00 0.00 79 1017.3
20260507052557 63 229 3.0 6.0 0.00 0.00 0.00 79 1017.3
20260507052505 63 201 3.0 6.0 0.00 0.00 0.00 78 1017.3
20260507052411 63 231 3.0 7.0 0.00 0.00 0.00 78 1017.3
20260507052306 63 253 3.0 7.0 0.00 0.00 0.00 78 1017.3
20260507052203 63 226 3.0 8.0 0.00 0.00 0.00 78 1017.3
20260507052100 63 236 3.0 8.0 0.00 0.00 0.00 78 1017.3
20260507051959 63 223 3.0 8.0 0.00 0.00 0.00 78 1017.3
20260507051900 63 210 3.0 8.0 0.00 0.00 0.00 78 1017.3
20260507051800 63 223 3.0 8.0 0.00 0.00 0.00 78 1017.3
20260507051700 63 221 3.0 8.0 0.00 0.00 0.00 78 1017.2
20260507051608 63 245 4.0 8.0 0.00 0.00 0.00 78 1017.2
20260507051558 63 229 4.0 8.0 0.00 0.00 0.00 78 1017.2
20260507051459 63 235 4.0 9.0 0.00 0.00 0.00 78 1017.2
20260507051359 63 217 4.0 9.0 0.00 0.00 0.00 78 1017.2
20260507051318 64 217 4.0 11.0 0.00 0.00 0.00 77 1017.2
20260507051259 63 231 4.0 11.0 0.00 0.00 0.00 78 1017.2
20260507051216 63 243 4.0 11.0 0.00 0.00 0.00 78 1017.2
20260507051208 64 217 4.0 11.0 0.00 0.00 0.00 78 1017.2
20260507051000 64 145 4.0 11.0 0.00 0.00 0.00 77 1017.2
20260507050859 64 224 5.0 11.0 0.00 0.00 0.00 77 1017.2
20260507050759 64 233 5.0 11.0 0.00 0.00 0.00 77 1017.2
20260507050659 64 242 5.0 11.0 0.00 0.00 0.00 77 1017.1
20260507050604 64 233 5.0 11.0 0.00 0.00 0.00 77 1017.2
20260507050554 64 231 5.0 11.0 0.00 0.00 0.00 77 1017.2
20260507050459 64 276 5.0 11.0 0.00 0.00 0.00 77 1017.2
20260507050359 64 236 4.0 11.0 0.00 0.00 0.00 77 1017.1
20260507050300 64 228 4.0 11.0 0.00 0.00 0.00 77 1017.1
20260507050159 64 195 4.0 11.0 0.00 0.00 0.00 77 1017.1
20260507050116 64 242 4.0 11.0 0.00 0.00 0.00 77 1017.1
20260507050105 64 236 4.0 11.0 0.00 0.00 0.00 77 1017.1
20260507045959 64 228 4.0 9.0 0.00 0.00 0.00 77 1017.1
20260507045859 64 236 4.0 9.0 0.00 0.00 0.00 77 1017.1
20260507045800 64 274 4.0 9.0 0.00 0.00 0.00 77 1017.1
20260507045659 64 238 4.0 9.0 0.00 0.00 0.00 77 1017.1
20260507045602 64 158 4.0 9.0 0.00 0.00 0.00 77 1017.2
20260507045552 64 193 4.0 9.0 0.00 0.00 0.00 77 1017.2
20260507045457 64 215 4.0 9.0 0.00 0.00 0.00 77 1017.1
20260507045357 64 250 4.0 9.0 0.00 0.00 0.00 77 1017.1
20260507045315 64 260 4.0 9.0 0.00 0.00 0.00 76 1017.1
20260507045255 64 229 4.0 9.0 0.00 0.00 0.00 76 1017.1
20260507045211 64 232 4.0 9.0 0.00 0.00 0.00 76 1017.1
20260507045203 64 260 4.0 9.0 0.00 0.00 0.00 76 1017.1
20260507044955 64 243 4.0 9.0 0.00 0.00 0.00 76 1017.1
20260507044855 65 225 4.0 9.0 0.00 0.00 0.00 76 1017.1
20260507044755 65 245 4.0 7.0 0.00 0.00 0.00 76 1017.1
20260507044655 65 233 4.0 9.0 0.00 0.00 0.00 76 1017.1
20260507044603 65 231 4.0 9.0 0.00 0.00 0.00 76 1017.0
20260507044552 65 257 4.0 9.0 0.00 0.00 0.00 76 1017.0
20260507044456 65 235 3.0 9.0 0.00 0.00 0.00 76 1017.0
20260507044355 65 248 3.0 9.0 0.00 0.00 0.00 76 1017.0
20260507044255 65 232 4.0 13.0 0.00 0.00 0.00 75 1017.0
20260507044153 65 212 4.0 13.0 0.00 0.00 0.00 75 1017.1
20260507044053 65 157 4.0 13.0 0.00 0.00 0.00 75 1017.0
20260507043952 65 232 4.0 13.0 0.00 0.00 0.00 75 1017.0
20260507043852 65 232 4.0 13.0 0.00 0.00 0.00 75 1017.0
20260507043751 65 218 4.0 13.0 0.00 0.00 0.00 75 1017.1
20260507043651 65 180 4.0 13.0 0.00 0.00 0.00 75 1017.1
20260507043554 65 228 4.0 13.0 0.00 0.00 0.00 75 1017.0
20260507043452 65 248 4.0 13.0 0.00 0.00 0.00 75 1017.0
20260507043351 65 219 3.0 13.0 0.00 0.00 0.00 75 1017.0
20260507043251 65 243 3.0 12.0 0.00 0.00 0.00 75 1017.0
20260507043151 65 250 3.0 12.0 0.00 0.00 0.00 75 1017.0
20260507043053 65 232 3.0 12.0 0.00 0.00 0.00 75 1017.0
20260507042945 65 231 3.0 12.0 0.00 0.00 0.00 75 1017.0
20260507042846 65 271 4.0 13.0 0.00 0.00 0.00 75 1016.9
20260507042745 65 257 4.0 13.0 0.00 0.00 0.00 75 1016.9
20260507042646 65 201 4.0 13.0 0.00 0.00 0.00 75 1016.9
20260507042547 65 232 5.0 13.0 0.00 0.00 0.00 75 1016.9
20260507042439 65 215 5.0 13.0 0.00 0.00 0.00 75 1016.8
20260507042340 65 264 5.0 13.0 0.00 0.00 0.00 75 1016.9
20260507042307 66 233 5.0 13.0 0.00 0.00 0.00 75 1016.9
20260507042240 66 243 5.0 13.0 0.00 0.00 0.00 75 1016.9
20260507042154 66 243 5.0 13.0 0.00 0.00 0.00 75 1016.9
20260507042037 66 233 5.0 13.0 0.00 0.00 0.00 75 1016.9
20260507041931 66 222 5.0 13.0 0.00 0.00 0.00 75 1016.9
20260507041831 66 246 5.0 13.0 0.00 0.00 0.00 75 1016.9
20260507041734 66 250 5.0 13.0 0.00 0.00 0.00 75 1016.9
20260507041631 66 249 4.0 12.0 0.00 0.00 0.00 75 1016.8
20260507041539 66 248 4.0 12.0 0.00 0.00 0.00 75 1016.9
20260507041531 66 252 4.0 12.0 0.00 0.00 0.00 75 1016.9
20260507041427 66 245 4.0 12.0 0.00 0.00 0.00 75 1016.9
20260507041325 66 232 4.0 12.0 0.00 0.00 0.00 75 1016.9
20260507041226 66 246 4.0 12.0 0.00 0.00 0.00 75 1016.9
20260507041125 66 248 4.0 12.0 0.00 0.00 0.00 75 1016.9
20260507041037 66 255 4.0 12.0 0.00 0.00 0.00 75 1016.9
20260507041023 66 246 4.0 12.0 0.00 0.00 0.00 75 1016.9
20260507040921 66 255 4.0 12.0 0.00 0.00 0.00 75 1016.9
20260507040821 66 231 4.0 12.0 0.00 0.00 0.00 75 1016.8
20260507040802 66 262 4.0 12.0 0.00 0.00 0.00 74 1016.8
20260507040722 66 242 4.0 12.0 0.00 0.00 0.00 74 1016.8
20260507040648 66 257 4.0 12.0 0.00 0.00 0.00 75 1016.8
20260507040521 66 267 4.0 12.0 0.00 0.00 0.00 74 1016.8
20260507040421 66 248 5.0 12.0 0.00 0.00 0.00 74 1016.8
20260507040322 67 250 5.0 12.0 0.00 0.00 0.00 75 1016.7
20260507040220 67 226 5.0 12.0 0.00 0.00 0.00 75 1016.7
20260507040119 67 250 5.0 12.0 0.00 0.00 0.00 75 1016.8
20260507040020 67 238 5.0 12.0 0.00 0.00 0.00 75 1016.7
20260507035920 67 226 5.0 12.0 0.00 0.00 0.00 75 1016.7
20260507035819 67 210 4.0 12.0 0.00 0.00 0.00 75 1016.7
20260507035719 67 252 4.0 12.0 0.00 0.00 0.00 75 1016.8
20260507035619 67 257 4.0 12.0 0.00 0.00 0.00 75 1016.7
20260507035539 67 190 4.0 9.0 0.00 0.00 0.00 75 1016.7
20260507035518 67 145 4.0 9.0 0.00 0.00 0.00 75 1016.7
20260507035419 67 233 4.0 9.0 0.00 0.00 0.00 75 1016.7
20260507035319 67 274 3.0 8.0 0.00 0.00 0.00 74 1016.7
20260507035256 67 225 3.0 8.0 0.00 0.00 0.00 75 1016.7
20260507035219 67 233 3.0 8.0 0.00 0.00 0.00 74 1016.7
20260507035145 67 228 3.0 8.0 0.00 0.00 0.00 75 1016.7
20260507035019 67 264 3.0 7.0 0.00 0.00 0.00 75 1016.7
20260507034919 67 211 3.0 7.0 0.00 0.00 0.00 75 1016.7
20260507034819 68 228 3.0 9.0 0.00 0.00 0.00 75 1016.7
20260507034719 68 233 3.0 9.0 0.00 0.00 0.00 75 1016.7
20260507034619 68 239 3.0 11.0 0.00 0.00 0.00 74 1016.7
20260507034535 68 242 3.0 11.0 0.00 0.00 0.00 74 1016.7
20260507034519 68 233 3.0 11.0 0.00 0.00 0.00 74 1016.7
20260507034419 68 195 3.0 11.0 0.00 0.00 0.00 74 1016.6
20260507034319 68 248 3.0 11.0 0.00 0.00 0.00 74 1016.7
20260507034217 68 241 3.0 11.0 0.00 0.00 0.00 74 1016.6
20260507034115 68 211 3.0 11.0 0.00 0.00 0.00 74 1016.7
20260507034033 68 245 3.0 11.0 0.00 0.00 0.00 74 1016.7
20260507034015 68 259 3.0 11.0 0.00 0.00 0.00 74 1016.7
20260507033916 68 211 3.0 11.0 0.00 0.00 0.00 74 1016.6
20260507033816 68 239 3.0 11.0 0.00 0.00 0.00 74 1016.6
20260507033715 68 237 3.0 11.0 0.00 0.00 0.00 74 1016.6
20260507033615 69 242 2.0 5.0 0.00 0.00 0.00 74 1016.6
20260507033533 69 271 2.0 5.0 0.00 0.00 0.00 74 1016.6
20260507033513 69 169 2.0 6.0 0.00 0.00 0.00 74 1016.6
20260507033413 69 232 2.0 6.0 0.00 0.00 0.00 74 1016.6
20260507033313 69 212 2.0 6.0 0.00 0.00 0.00 74 1016.6
20260507033252 69 236 2.0 8.0 0.00 0.00 0.00 73 1016.6
20260507033213 69 236 2.0 6.0 0.00 0.00 0.00 73 1016.6
20260507033143 69 205 2.0 6.0 0.00 0.00 0.00 73 1016.6
20260507033014 69 260 2.0 8.0 0.00 0.00 0.00 73 1016.6
20260507032914 69 246 2.0 8.0 0.00 0.00 0.00 73 1016.6
20260507032811 69 248 2.0 8.0 0.00 0.00 0.00 73 1016.6
20260507032712 69 239 2.0 8.0 0.00 0.00 0.00 72 1016.5
20260507032612 69 250 2.0 8.0 0.00 0.00 0.00 72 1016.5
20260507032531 69 300 2.0 8.0 0.00 0.00 0.00 72 1016.6
20260507032512 69 240 2.0 8.0 0.00 0.00 0.00 72 1016.6
20260507032411 69 239 2.0 9.0 0.00 0.00 0.00 72 1016.5
20260507032312 69 287 2.0 9.0 0.00 0.00 0.00 72 1016.5
20260507032211 69 243 2.0 9.0 0.00 0.00 0.00 71 1016.5
20260507032111 70 233 2.0 9.0 0.00 0.00 0.00 71 1016.5
20260507032011 70 281 2.0 9.0 0.00 0.00 0.00 71 1016.4
20260507031910 70 250 2.0 9.0 0.00 0.00 0.00 71 1016.4
20260507031808 70 262 2.0 9.0 0.00 0.00 0.00 71 1016.4
20260507031707 70 287 2.0 9.0 0.00 0.00 0.00 70 1016.4
20260507031607 70 243 2.0 9.0 0.00 0.00 0.00 70 1016.4
20260507031529 70 260 2.0 9.0 0.00 0.00 0.00 70 1016.4
20260507031507 70 276 2.0 9.0 0.00 0.00 0.00 70 1016.4
20260507031407 70 235 2.0 6.0 0.00 0.00 0.00 70 1016.4
20260507031307 70 232 2.0 6.0 0.00 0.00 0.00 69 1016.3
20260507031253 71 228 2.0 9.0 0.00 0.00 0.00 69 1016.4
20260507031205 71 262 2.0 8.0 0.00 0.00 0.00 69 1016.4
20260507031141 71 280 2.0 8.0 0.00 0.00 0.00 69 1016.4
20260507031004 71 248 2.0 10.0 0.00 0.00 0.00 69 1016.4
20260507030903 71 236 2.0 10.0 0.00 0.00 0.00 69 1016.3
20260507030804 71 228 2.0 10.0 0.00 0.00 0.00 68 1016.4
20260507030752 71 253 2.0 10.0 0.00 0.00 0.00 68 1016.3
20260507030703 71 233 2.0 10.0 0.00 0.00 0.00 68 1016.3
20260507030640 71 274 2.0 10.0 0.00 0.00 0.00 68 1016.3
20260507030503 72 214 2.0 10.0 0.00 0.00 0.00 67 1016.3
20260507030401 72 250 2.0 10.0 0.00 0.00 0.00 67 1016.4
20260507030301 72 226 2.0 10.0 0.00 0.00 0.00 66 1016.3
20260507030243 72 287 2.0 5.0 0.00 0.00 0.00 64 1016.3
20260507030159 72 256 2.0 10.0 0.00 0.00 0.00 66 1016.3
20260507030135 72 193 2.0 10.0 0.00 0.00 0.00 64 1016.3
20260507025959 72 236 2.0 5.0 0.00 0.00 0.00 64 1016.3
20260507025859 72 198 2.0 5.0 0.00 0.00 0.00 64 1016.3
20260507025800 72 236 2.0 5.0 0.00 0.00 0.00 64 1016.2
20260507025659 72 240 1.0 5.0 0.00 0.00 0.00 64 1016.2
20260507025557 72 245 1.0 5.0 0.00 0.00 0.00 64 1016.2
20260507025521 72 240 1.0 5.0 0.00 0.00 0.00 64 1016.3
20260507025457 72 240 1.0 5.0 0.00 0.00 0.00 64 1016.3
20260507025357 72 221 1.0 4.0 0.00 0.00 0.00 64 1016.3
20260507025255 72 243 1.0 4.0 0.00 0.00 0.00 64 1016.3
20260507025152 72 217 0.0 4.0 0.00 0.00 0.00 64 1016.2
20260507025019 72 232 0.0 3.0 0.00 0.00 0.00 64 1016.3
20260507024947 72 242 0.0 3.0 0.00 0.00 0.00 64 1016.3
20260507024847 73 241 1.0 3.0 0.00 0.00 0.00 64 1016.3
20260507024747 73 242 1.0 3.0 0.00 0.00 0.00 63 1016.2
20260507024645 73 242 1.0 3.0 0.00 0.00 0.00 63 1016.2
20260507024530 73 243 1.0 3.0 0.00 0.00 0.00 63 1016.2
20260507024442 73 233 1.0 3.0 0.00 0.00 0.00 63 1016.2
20260507024341 73 233 1.0 3.0 0.00 0.00 0.00 63 1016.2
20260507024247 73 253 1.0 3.0 0.00 0.00 0.00 63 1016.2
20260507024241 73 233 1.0 3.0 0.00 0.00 0.00 63 1016.2
20260507024139 73 245 1.0 3.0 0.00 0.00 0.00 63 1016.2
20260507024127 73 252 1.0 3.0 0.00 0.00 0.00 63 1016.2
20260507023935 73 232 1.0 3.0 0.00 0.00 0.00 63 1016.2
20260507023836 73 231 0.0 3.0 0.00 0.00 0.00 63 1016.2
20260507023734 73 232 0.0 3.0 0.00 0.00 0.00 63 1016.2
20260507023634 73 232 0.0 3.0 0.00 0.00 0.00 62 1016.2
20260507023516 73 232 0.0 3.0 0.00 0.00 0.00 62 1016.2
20260507023325 73 232 0.0 3.0 0.00 0.00 0.00 62 1016.1
20260507023226 73 232 0.0 3.0 0.00 0.00 0.00 62 1016.1
20260507023126 73 233 0.0 3.0 0.00 0.00 0.00 62 1016.1
20260507023026 73 228 0.0 2.0 0.00 0.00 0.00 62 1016.1
20260507023015 73 228 0.0 1.0 0.00 0.00 0.00 62 1016.1
20260507022920 73 228 0.0 1.0 0.00 0.00 0.00 63 1016.1
20260507022819 73 228 0.0 0.0 0.00 0.00 0.00 62 1016.1
20260507022720 73 228 0.0 0.0 0.00 0.00 0.00 62 1016.1
20260507022619 73 228 0.0 0.0 0.00 0.00 0.00 62 1016.1
20260507022516 73 228 0.0 0.0 0.00 0.00 0.00 62 1016.0
20260507022413 73 227 0.0 0.0 0.00 0.00 0.00 62 1016.1
20260507022313 73 228 0.0 2.0 0.00 0.00 0.00 62 1016.0
20260507022211 73 229 0.0 2.0 0.00 0.00 0.00 61 1016.0
20260507022112 73 228 0.0 2.0 0.00 0.00 0.00 61 1016.0
20260507022007 73 228 0.0 2.0 0.00 0.00 0.00 61 1016.0
20260507021908 73 228 0.0 2.0 0.00 0.00 0.00 61 1015.9
20260507021807 73 228 0.0 2.0 0.00 0.00 0.00 61 1015.9
20260507021705 73 228 0.0 2.0 0.00 0.00 0.00 61 1016.0
20260507021603 74 228 1.0 3.0 0.00 0.00 0.00 61 1016.0
20260507021514 74 228 1.0 3.0 0.00 0.00 0.00 61 1016.0
20260507021459 74 228 1.0 3.0 0.00 0.00 0.00 60 1016.0
20260507021359 74 227 1.0 3.0 0.00 0.00 0.00 61 1016.0
20260507021259 74 221 0.0 3.0 0.00 0.00 0.00 61 1016.0
20260507021158 74 221 0.0 3.0 0.00 0.00 0.00 61 1016.0
20260507021056 74 221 1.0 3.0 0.00 0.00 0.00 61 1016.0
20260507021013 74 221 1.0 3.0 0.00 0.00 0.00 60 1015.9
20260507020951 74 221 1.0 3.0 0.00 0.00 0.00 60 1015.9
20260507020849 74 221 1.0 3.0 0.00 0.00 0.00 60 1015.9
20260507020749 74 221 1.0 3.0 0.00 0.00 0.00 60 1015.9
20260507020649 74 207 0.0 3.0 0.00 0.00 0.00 60 1015.9
20260507020549 74 232 0.0 2.0 0.00 0.00 0.00 60 1015.9
20260507020511 74 232 0.0 2.0 0.00 0.00 0.00 60 1015.9
20260507020444 74 232 0.0 2.0 0.00 0.00 0.00 60 1016.0
20260507020343 74 232 0.0 2.0 0.00 0.00 0.00 60 1016.0
20260507020243 74 232 0.0 2.0 0.00 0.00 0.00 60 1016.0
20260507020142 74 232 0.0 2.0 0.00 0.00 0.00 60 1016.0
20260507020041 74 231 0.0 2.0 0.00 0.00 0.00 61 1016.0
20260507020011 74 231 0.0 2.0 0.00 0.00 0.00 61 1016.0
20260507015939 74 231 0.0 2.0 0.00 0.00 0.00 61 1016.0
20260507015839 74 231 0.0 2.0 0.00 0.00 0.00 61 1016.0
20260507015739 74 231 0.0 2.0 0.00 0.00 0.00 61 1016.0
20260507015637 74 231 0.0 2.0 0.00 0.00 0.00 61 1016.1
20260507015535 74 231 0.0 2.0 0.00 0.00 0.00 60 1016.1
20260507015509 74 230 0.0 2.0 0.00 0.00 0.00 60 1016.1
20260507015431 74 231 0.0 2.0 0.00 0.00 0.00 60 1016.1
20260507015331 74 231 0.0 2.0 0.00 0.00 0.00 60 1016.1
20260507015234 74 160 0.0 2.0 0.00 0.00 0.00 60 1016.1
20260507015129 74 160 0.0 2.0 0.00 0.00 0.00 60 1016.1
20260507015028 74 160 0.0 2.0 0.00 0.00 0.00 60 1016.1
20260507015009 74 161 0.0 2.0 0.00 0.00 0.00 60 1016.1
20260507014923 74 160 0.0 2.0 0.00 0.00 0.00 60 1016.0
20260507014823 74 245 0.0 2.0 0.00 0.00 0.00 59 1016.0
20260507014724 74 245 0.0 2.0 0.00 0.00 0.00 60 1016.0
20260507014622 74 245 0.0 3.0 0.00 0.00 0.00 60 1016.0
20260507014509 74 245 0.0 3.0 0.00 0.00 0.00 60 1016.0
20260507014415 74 245 0.0 3.0 0.00 0.00 0.00 60 1016.0
20260507014313 74 245 0.0 3.0 0.00 0.00 0.00 60 1016.1
20260507014213 74 245 0.0 3.0 0.00 0.00 0.00 60 1016.1
20260507014112 74 230 0.0 3.0 0.00 0.00 0.00 60 1016.1
20260507014013 74 230 0.0 3.0 0.00 0.00 0.00 60 1016.0
20260507013910 74 214 0.0 3.0 0.00 0.00 0.00 60 1016.0
20260507013809 74 326 0.0 3.0 0.00 0.00 0.00 59 1016.1
20260507013709 74 326 0.0 3.0 0.00 0.00 0.00 60 1016.1
20260507013607 74 321 0.0 2.0 0.00 0.00 0.00 60 1016.0
20260507013507 74 321 0.0 2.0 0.00 0.00 0.00 60 1016.1
20260507013459 74 321 0.0 2.0 0.00 0.00 0.00 60 1016.0
20260507013401 74 321 0.0 2.0 0.00 0.00 0.00 60 1016.1
20260507013341 74 321 0.0 2.0 0.00 0.00 0.00 60 1016.1